Wetterdaten: Freitag, 15.02.2013
Datum Zeit Temp. Aussen +5cm Feuchte Auss Luftdruck Regen Sonnenschein Regendauer UV Solar Windben
15.02.2013 00:00 -0,7 C -1,6 C 98 % 1013,7 hPa 0,0 l/m 0 min 0 min 0,0 UV-I 0 W/m 7,7 km/h (2 Bft)
15.02.2013 00:02 -0,7 C -1,6 C 98 % 1013,8 hPa 0,0 l/m 0 min 0 min 0,0 UV-I 0 W/m 12,9 km/h (3 Bft)
15.02.2013 00:04 -0,7 C -1,6 C 98 % 1013,7 hPa 0,0 l/m 0 min 0 min 0,0 UV-I 0 W/m 18,0 km/h (3 Bft)
15.02.2013 00:06 -0,7 C -1,6 C 98 % 1013,7 hPa 0,0 l/m 0 min 0 min 0,0 UV-I 0 W/m 12,9 km/h (3 Bft)
15.02.2013 00:08 -0,7 C -1,6 C 98 % 1013,7 hPa 0,0 l/m 0 min 0 min 0,0 UV-I 0 W/m 12,9 km/h (3 Bft)
15.02.2013 00:10 -0,7 C -1,6 C 98 % 1013,7 hPa 0,0 l/m 0 min 0 min 0,0 UV-I 0 W/m 18,0 km/h (3 Bft)
15.02.2013 00:12 -0,7 C -1,6 C 98 % 1013,7 hPa 0,0 l/m 0 min 0 min 0,0 UV-I 0 W/m 12,9 km/h (3 Bft)
15.02.2013 00:14 -0,7 C -1,6 C 98 % 1013,7 hPa 0,0 l/m 0 min 0 min 0,0 UV-I 0 W/m 10,3 km/h (2 Bft)
15.02.2013 00:16 -0,7 C -1,6 C 98 % 1013,7 hPa 0,0 l/m 0 min 0 min 0,0 UV-I 0 W/m 18,0 km/h (3 Bft)
15.02.2013 00:18 -0,7 C -1,6 C 98 % 1013,7 hPa 0,0 l/m 0 min 0 min 0,0 UV-I 0 W/m 20,6 km/h (4 Bft)
15.02.2013 00:20 -0,7 C -1,6 C 99 % 1013,7 hPa 0,0 l/m 0 min 0 min 0,0 UV-I 0 W/m 18,0 km/h (3 Bft)
15.02.2013 00:22 -0,7 C -1,6 C 99 % 1013,7 hPa 0,0 l/m 0 min 0 min 0,0 UV-I 0 W/m 18,0 km/h (3 Bft)
15.02.2013 00:24 -0,7 C -1,6 C 99 % 1013,7 hPa 0,0 l/m 0 min 0 min 0,0 UV-I 0 W/m 12,9 km/h (3 Bft)
15.02.2013 00:26 -0,6 C -1,6 C 99 % 1013,7 hPa 0,0 l/m 0 min 0 min 0,0 UV-I 0 W/m 18,0 km/h (3 Bft)
15.02.2013 00:28 -0,6 C -1,6 C 99 % 1013,7 hPa 0,0 l/m 0 min 0 min 0,0 UV-I 0 W/m 12,9 km/h (3 Bft)
15.02.2013 00:30 -0,6 C -1,6 C 99 % 1013,7 hPa 0,0 l/m 0 min 0 min 0,0 UV-I 0 W/m 12,9 km/h (3 Bft)
15.02.2013 00:32 -0,6 C -1,6 C 99 % 1013,7 hPa 0,0 l/m 0 min 0 min 0,0 UV-I 0 W/m 20,6 km/h (4 Bft)
15.02.2013 00:34 -0,6 C -1,6 C 99 % 1013,8 hPa 0,0 l/m 0 min 0 min 0,0 UV-I 0 W/m 20,6 km/h (4 Bft)
15.02.2013 00:36 -0,6 C -1,6 C 99 % 1013,9 hPa 0,0 l/m 0 min 0 min 0,0 UV-I 0 W/m 18,0 km/h (3 Bft)
15.02.2013 00:38 -0,6 C -1,6 C 99 % 1013,8 hPa 0,0 l/m 0 min 0 min 0,0 UV-I 0 W/m 18,0 km/h (3 Bft)
15.02.2013 00:40 -0,6 C -1,6 C 99 % 1013,7 hPa 0,0 l/m 0 min 0 min 0,0 UV-I 0 W/m 20,6 km/h (4 Bft)
15.02.2013 00:42 -0,6 C -1,6 C 99 % 1013,7 hPa 0,0 l/m 0 min 0 min 0,0 UV-I 0 W/m 23,2 km/h (4 Bft)
15.02.2013 00:44 -0,6 C -1,6 C 99 % 1013,8 hPa 0,0 l/m 0 min 0 min 0,0 UV-I 0 W/m 12,9 km/h (3 Bft)
15.02.2013 00:46 -0,6 C -1,6 C 99 % 1013,7 hPa 0,0 l/m 0 min 0 min 0,0 UV-I 0 W/m 15,4 km/h (3 Bft)
15.02.2013 00:48 -0,6 C -1,6 C 99 % 1013,7 hPa 0,0 l/m 0 min 0 min 0,0 UV-I 0 W/m 12,9 km/h (3 Bft)
15.02.2013 00:50 -0,6 C -1,6 C 99 % 1013,8 hPa 0,0 l/m 0 min 0 min 0,0 UV-I 0 W/m 0,0 km/h (0 Bft)
15.02.2013 00:52 -0,6 C -1,6 C 99 % 1013,8 hPa 0,0 l/m 0 min 0 min 0,0 UV-I 0 W/m 18,0 km/h (3 Bft)
15.02.2013 00:54 -0,6 C -1,6 C 99 % 1013,9 hPa 0,0 l/m 0 min 0 min 0,0 UV-I 0 W/m 20,6 km/h (4 Bft)
15.02.2013 00:56 -0,6 C -1,6 C 99 % 1013,8 hPa 0,0 l/m 0 min 0 min 0,0 UV-I 0 W/m 7,7 km/h (2 Bft)
15.02.2013 00:58 -0,6 C -1,6 C 99 % 1013,7 hPa 0,0 l/m 0 min 0 min 0,0 UV-I 0 W/m 20,6 km/h (4 Bft)
15.02.2013 01:00 -0,6 C -1,6 C 99 % 1013,7 hPa 0,0 l/m 0 min 0 min 0,0 UV-I 0 W/m 18,0 km/h (3 Bft)
15.02.2013 01:02 -0,6 C -1,6 C 99 % 1013,7 hPa 0,0 l/m 0 min 0 min 0,0 UV-I 0 W/m 20,6 km/h (4 Bft)
15.02.2013 01:04 -0,6 C -1,6 C 99 % 1013,7 hPa 0,0 l/m 0 min 0 min 0,0 UV-I 0 W/m 18,0 km/h (3 Bft)
15.02.2013 01:06 -0,6 C -1,6 C 99 % 1013,7 hPa 0,0 l/m 0 min 0 min 0,0 UV-I 0 W/m 18,0 km/h (3 Bft)
15.02.2013 01:08 -0,6 C -1,6 C 99 % 1013,8 hPa 0,0 l/m 0 min 0 min 0,0 UV-I 0 W/m 18,0 km/h (3 Bft)
15.02.2013 01:10 -0,6 C -1,6 C 99 % 1013,8 hPa 0,0 l/m 0 min 0 min 0,0 UV-I 0 W/m 18,0 km/h (3 Bft)
15.02.2013 01:12 -0,6 C -1,6 C 99 % 1013,8 hPa 0,0 l/m 0 min 0 min 0,0 UV-I 0 W/m 15,4 km/h (3 Bft)
15.02.2013 01:14 -0,6 C -1,6 C 99 % 1013,8 hPa 0,0 l/m 0 min 0 min 0,0 UV-I 0 W/m 18,0 km/h (3 Bft)
15.02.2013 01:16 -0,6 C -1,6 C 99 % 1013,8 hPa 0,0 l/m 0 min 0 min 0,0 UV-I 0 W/m 10,3 km/h (2 Bft)
15.02.2013 01:18 -0,6 C -1,6 C 99 % 1013,7 hPa 0,0 l/m 0 min 0 min 0,0 UV-I 0 W/m 18,0 km/h (3 Bft)
15.02.2013 01:20 -0,6 C -1,6 C 99 % 1013,7 hPa 0,0 l/m 0 min 0 min 0,0 UV-I 0 W/m 15,4 km/h (3 Bft)
15.02.2013 01:22 -0,6 C -1,6 C 99 % 1013,7 hPa 0,0 l/m 0 min 0 min 0,0 UV-I 0 W/m 10,3 km/h (2 Bft)
15.02.2013 01:24 -0,6 C -1,6 C 99 % 1013,8 hPa 0,0 l/m 0 min 0 min 0,0 UV-I 0 W/m 12,9 km/h (3 Bft)
15.02.2013 01:26 -0,6 C -1,6 C 99 % 1013,9 hPa 0,0 l/m 0 min 0 min 0,0 UV-I 0 W/m 10,3 km/h (2 Bft)
15.02.2013 01:28 -0,6 C -1,6 C 99 % 1013,9 hPa 0,0 l/m 0 min 0 min 0,0 UV-I 0 W/m 2,6 km/h (1 Bft)
15.02.2013 01:30 -0,6 C -1,6 C 99 % 1013,8 hPa 0,0 l/m 0 min 0 min 0,0 UV-I 0 W/m 7,7 km/h (2 Bft)
15.02.2013 01:32 -0,6 C -1,6 C 99 % 1013,8 hPa 0,0 l/m 0 min 0 min 0,0 UV-I 0 W/m 7,7 km/h (2 Bft)
15.02.2013 01:34 -0,6 C -1,6 C 99 % 1013,8 hPa 0,0 l/m 0 min 0 min 0,0 UV-I 0 W/m 7,7 km/h (2 Bft)
15.02.2013 01:36 -0,6 C -1,6 C 99 % 1013,7 hPa 0,0 l/m 0 min 0 min 0,0 UV-I 0 W/m 7,7 km/h (2 Bft)
15.02.2013 01:38 -0,6 C -1,6 C 99 % 1013,8 hPa 0,0 l/m 0 min 0 min 0,0 UV-I 0 W/m 12,9 km/h (3 Bft)
15.02.2013 01:40 -0,6 C -1,6 C 99 % 1013,7 hPa 0,0 l/m 0 min 0 min 0,0 UV-I 0 W/m 12,9 km/h (3 Bft)
15.02.2013 01:42 -0,6 C -1,6 C 99 % 1013,8 hPa 0,0 l/m 0 min 0 min 0,0 UV-I 0 W/m 7,7 km/h (2 Bft)
15.02.2013 01:44 -0,6 C -1,6 C 99 % 1013,9 hPa 0,0 l/m 0 min 0 min 0,0 UV-I 0 W/m 10,3 km/h (2 Bft)
15.02.2013 01:46 -0,6 C -1,6 C 99 % 1013,9 hPa 0,0 l/m 0 min 0 min 0,0 UV-I 0 W/m 10,3 km/h (2 Bft)
15.02.2013 01:48 -0,6 C -1,6 C 99 % 1013,9 hPa 0,0 l/m 0 min 0 min 0,0 UV-I 0 W/m 7,7 km/h (2 Bft)
15.02.2013 01:50 -0,6 C -1,6 C 99 % 1013,8 hPa 0,0 l/m 0 min 0 min 0,0 UV-I 0 W/m 12,9 km/h (3 Bft)
15.02.2013 01:52 -0,6 C -1,6 C 99 % 1013,8 hPa 0,0 l/m 0 min 0 min 0,0 UV-I 0 W/m 7,7 km/h (2 Bft)
15.02.2013 01:54 -0,6 C -1,6 C 99 % 1013,8 hPa 0,0 l/m 0 min 0 min 0,0 UV-I 0 W/m 7,7 km/h (2 Bft)
15.02.2013 01:56 -0,6 C -1,6 C 99 % 1013,7 hPa 0,0 l/m 0 min 0 min 0,0 UV-I 0 W/m 7,7 km/h (2 Bft)
15.02.2013 01:58 -0,6 C -1,6 C 99 % 1013,8 hPa 0,0 l/m 0 min 0 min 0,0 UV-I 0 W/m 7,7 km/h (2 Bft)
15.02.2013 02:00 -0,6 C -1,6 C 99 % 1013,9 hPa 0,0 l/m 0 min 0 min 0,0 UV-I 0 W/m 5,1 km/h (1 Bft)
15.02.2013 02:02 -0,6 C -1,6 C 99 % 1013,9 hPa 0,0 l/m 0 min 0 min 0,0 UV-I 0 W/m 7,7 km/h (2 Bft)
15.02.2013 02:04 -0,6 C -1,6 C 99 % 1013,8 hPa 0,0 l/m 0 min 0 min 0,0 UV-I 0 W/m 10,3 km/h (2 Bft)
15.02.2013 02:06 -0,6 C -1,6 C 99 % 1013,8 hPa 0,0 l/m 0 min 0 min 0,0 UV-I 0 W/m 7,7 km/h (2 Bft)
15.02.2013 02:08 -0,6 C -1,6 C 99 % 1013,8 hPa 0,0 l/m 0 min 0 min 0,0 UV-I 0 W/m 7,7 km/h (2 Bft)
15.02.2013 02:10 -0,6 C -1,6 C 99 % 1013,8 hPa 0,0 l/m 0 min 0 min 0,0 UV-I 0 W/m 12,9 km/h (3 Bft)
15.02.2013 02:12 -0,6 C -1,6 C 99 % 1013,8 hPa 0,0 l/m 0 min 0 min 0,0 UV-I 0 W/m 10,3 km/h (2 Bft)
15.02.2013 02:14 -0,6 C -1,6 C 99 % 1013,8 hPa 0,0 l/m 0 min 0 min 0,0 UV-I 0 W/m 12,9 km/h (3 Bft)
15.02.2013 02:16 -0,6 C -1,6 C 99 % 1013,8 hPa 0,0 l/m 0 min 0 min 0,0 UV-I 0 W/m 10,3 km/h (2 Bft)
15.02.2013 02:18 -0,6 C -1,6 C 99 % 1013,9 hPa 0,0 l/m 0 min 0 min 0,0 UV-I 0 W/m 7,7 km/h (2 Bft)
15.02.2013 02:20 -0,6 C -1,6 C 99 % 1013,9 hPa 0,0 l/m 0 min 0 min 0,0 UV-I 0 W/m 0,0 km/h (0 Bft)
15.02.2013 02:22 -0,6 C -1,6 C 99 % 1013,9 hPa 0,0 l/m 0 min 0 min 0,0 UV-I 0 W/m 5,1 km/h (1 Bft)
15.02.2013 02:24 -0,6 C -1,6 C 99 % 1013,9 hPa 0,0 l/m 0 min 0 min 0,0 UV-I 0 W/m 10,3 km/h (2 Bft)
15.02.2013 02:26 -0,6 C -1,6 C 99 % 1013,9 hPa 0,0 l/m 0 min 0 min 0,0 UV-I 0 W/m 2,6 km/h (1 Bft)
15.02.2013 02:28 -0,6 C -1,6 C 99 % 1013,9 hPa 0,0 l/m 0 min 0 min 0,0 UV-I 0 W/m 10,3 km/h (2 Bft)
15.02.2013 02:30 -0,6 C -1,6 C 99 % 1013,9 hPa 0,0 l/m 0 min 0 min 0,0 UV-I 0 W/m 12,9 km/h (3 Bft)
15.02.2013 02:32 -0,6 C -1,6 C 99 % 1013,9 hPa 0,0 l/m 0 min 0 min 0,0 UV-I 0 W/m 7,7 km/h (2 Bft)
15.02.2013 02:34 -0,6 C -1,6 C 99 % 1014,0 hPa 0,0 l/m 0 min 0 min 0,0 UV-I 0 W/m 7,7 km/h (2 Bft)
15.02.2013 02:36 -0,6 C -1,6 C 99 % 1013,9 hPa 0,0 l/m 0 min 0 min 0,0 UV-I 0 W/m 10,3 km/h (2 Bft)
15.02.2013 02:38 -0,6 C -1,6 C 99 % 1014,0 hPa 0,0 l/m 0 min 0 min 0,0 UV-I 0 W/m 7,7 km/h (2 Bft)
15.02.2013 02:40 -0,6 C -1,6 C 99 % 1013,9 hPa 0,0 l/m 0 min 0 min 0,0 UV-I 0 W/m 7,7 km/h (2 Bft)
15.02.2013 02:42 -0,6 C -1,6 C 99 % 1013,9 hPa 0,0 l/m 0 min 0 min 0,0 UV-I 0 W/m 10,3 km/h (2 Bft)
15.02.2013 02:44 -0,6 C -1,6 C 99 % 1013,9 hPa 0,0 l/m 0 min 0 min 0,0 UV-I 0 W/m 0,0 km/h (0 Bft)
15.02.2013 02:46 -0,6 C -1,6 C 99 % 1013,9 hPa 0,0 l/m 0 min 0 min 0,0 UV-I 0 W/m 5,1 km/h (1 Bft)
15.02.2013 02:48 -0,6 C -1,6 C 99 % 1014,0 hPa 0,0 l/m 0 min 0 min 0,0 UV-I 0 W/m 5,1 km/h (1 Bft)
15.02.2013 02:50 -0,6 C -1,6 C 99 % 1014,0 hPa 0,0 l/m 0 min 0 min 0,0 UV-I 0 W/m 10,3 km/h (2 Bft)
15.02.2013 02:52 -0,6 C -1,6 C 99 % 1014,0 hPa 0,0 l/m 0 min 0 min 0,0 UV-I 0 W/m 10,3 km/h (2 Bft)
15.02.2013 02:54 -0,6 C -1,6 C 99 % 1013,9 hPa 0,0 l/m 0 min 0 min 0,0 UV-I 0 W/m 5,1 km/h (1 Bft)
15.02.2013 02:56 -0,6 C -1,6 C 99 % 1013,9 hPa 0,0 l/m 0 min 0 min 0,0 UV-I 0 W/m 7,7 km/h (2 Bft)
15.02.2013 02:58 -0,6 C -1,6 C 99 % 1013,9 hPa 0,0 l/m 0 min 0 min 0,0 UV-I 0 W/m 7,7 km/h (2 Bft)
15.02.2013 03:00 -0,6 C -1,6 C 99 % 1013,9 hPa 0,0 l/m 0 min 0 min 0,0 UV-I 0 W/m 5,1 km/h (1 Bft)
15.02.2013 03:02 -0,6 C -1,6 C 99 % 1013,9 hPa 0,0 l/m 0 min 0 min 0,0 UV-I 0 W/m 7,7 km/h (2 Bft)
15.02.2013 03:05 -0,6 C -1,6 C 99 % 1013,8 hPa 0,0 l/m 0 min 0 min 0,0 UV-I 0 W/m 7,7 km/h (2 Bft)
15.02.2013 03:07 -0,6 C -1,6 C 99 % 1013,9 hPa 0,0 l/m 0 min 0 min 0,0 UV-I 0 W/m 0,0 km/h (0 Bft)
15.02.2013 03:08 -0,6 C -1,6 C 99 % 1013,9 hPa 0,0 l/m 0 min 0 min 0,0 UV-I 0 W/m 0,0 km/h (0 Bft)
15.02.2013 03:10 -0,6 C -1,6 C 99 % 1013,9 hPa 0,0 l/m 0 min 0 min 0,0 UV-I 0 W/m 2,6 km/h (1 Bft)
15.02.2013 03:12 -0,6 C -1,6 C 99 % 1013,9 hPa 0,0 l/m 0 min 0 min 0,0 UV-I 0 W/m 7,7 km/h (2 Bft)
15.02.2013 03:14 -0,6 C -1,6 C 99 % 1013,9 hPa 0,0 l/m 0 min 0 min 0,0 UV-I 0 W/m 0,0 km/h (0 Bft)
15.02.2013 03:16 -0,6 C -1,6 C 99 % 1014,0 hPa 0,0 l/m 0 min 0 min 0,0 UV-I 0 W/m 0,0 km/h (0 Bft)
15.02.2013 03:18 -0,6 C -1,6 C 99 % 1013,9 hPa 0,0 l/m 0 min 0 min 0,0 UV-I 0 W/m 5,1 km/h (1 Bft)
15.02.2013 03:20 -0,6 C -1,6 C 99 % 1013,9 hPa 0,0 l/m 0 min 0 min 0,0 UV-I 0 W/m 7,7 km/h (2 Bft)
15.02.2013 03:22 -0,5 C -1,6 C 99 % 1013,9 hPa 0,0 l/m 0 min 0 min 0,0 UV-I 0 W/m 0,0 km/h (0 Bft)
15.02.2013 03:24 -0,5 C -1,6 C 99 % 1014,0 hPa 0,0 l/m 0 min 0 min 0,0 UV-I 0 W/m 5,1 km/h (1 Bft)
15.02.2013 03:26 -0,5 C -1,6 C 99 % 1014,0 hPa 0,0 l/m 0 min 0 min 0,0 UV-I 0 W/m 5,1 km/h (1 Bft)
15.02.2013 03:28 -0,5 C -1,6 C 99 % 1014,0 hPa 0,0 l/m 0 min 0 min 0,0 UV-I 0 W/m 5,1 km/h (1 Bft)
15.02.2013 03:30 -0,5 C -1,6 C 99 % 1014,0 hPa 0,0 l/m 0 min 0 min 0,0 UV-I 0 W/m 7,7 km/h (2 Bft)
15.02.2013 03:32 -0,5 C -1,6 C 99 % 1013,9 hPa 0,0 l/m 0 min 0 min 0,0 UV-I 0 W/m 5,1 km/h (1 Bft)
15.02.2013 03:34 -0,5 C -1,6 C 99 % 1014,0 hPa 0,0 l/m 0 min 0 min 0,0 UV-I 0 W/m 0,0 km/h (0 Bft)
15.02.2013 03:36 -0,5 C -1,6 C 99 % 1013,9 hPa 0,0 l/m 0 min 0 min 0,0 UV-I 0 W/m 7,7 km/h (2 Bft)
15.02.2013 03:38 -0,5 C -1,6 C 99 % 1013,9 hPa 0,0 l/m 0 min 0 min 0,0 UV-I 0 W/m 2,6 km/h (1 Bft)
15.02.2013 03:40 -0,5 C -1,6 C 99 % 1014,0 hPa 0,0 l/m 0 min 0 min 0,0 UV-I 0 W/m 7,7 km/h (2 Bft)
15.02.2013 03:42 -0,5 C -1,6 C 99 % 1014,1 hPa 0,0 l/m 0 min 0 min 0,0 UV-I 0 W/m 5,1 km/h (1 Bft)
15.02.2013 03:44 -0,5 C -1,6 C 99 % 1014,0 hPa 0,0 l/m 0 min 0 min 0,0 UV-I 0 W/m 7,7 km/h (2 Bft)
15.02.2013 03:46 -0,5 C -1,6 C 99 % 1014,0 hPa 0,0 l/m 0 min 0 min 0,0 UV-I 0 W/m 7,7 km/h (2 Bft)
15.02.2013 03:48 -0,5 C -1,6 C 99 % 1014,0 hPa 0,0 l/m 0 min 0 min 0,0 UV-I 0 W/m 10,3 km/h (2 Bft)
15.02.2013 03:50 -0,5 C -1,6 C 99 % 1014,0 hPa 0,0 l/m 0 min 0 min 0,0 UV-I 0 W/m 10,3 km/h (2 Bft)
15.02.2013 03:52 -0,5 C -1,6 C 99 % 1014,0 hPa 0,0 l/m 0 min 0 min 0,0 UV-I 0 W/m 7,7 km/h (2 Bft)
15.02.2013 03:54 -0,5 C -1,6 C 99 % 1014,0 hPa 0,0 l/m 0 min 0 min 0,0 UV-I 0 W/m 5,1 km/h (1 Bft)
15.02.2013 03:56 -0,5 C -1,6 C 99 % 1014,0 hPa 0,0 l/m 0 min 0 min 0,0 UV-I 0 W/m 5,1 km/h (1 Bft)
15.02.2013 03:58 -0,5 C -1,6 C 99 % 1014,0 hPa 0,0 l/m 0 min 0 min 0,0 UV-I 0 W/m 10,3 km/h (2 Bft)
15.02.2013 04:00 -0,5 C -1,6 C 99 % 1014,1 hPa 0,0 l/m 0 min 0 min 0,0 UV-I 0 W/m 0,0 km/h (0 Bft)
15.02.2013 04:05 -0,5 C -1,6 C 99 % 1014,2 hPa 0,0 l/m 0 min 0 min 0,0 UV-I 0 W/m 0,0 km/h (0 Bft)
15.02.2013 04:06 -0,5 C -1,6 C 99 % 1014,2 hPa 0,0 l/m 0 min 0 min 0,0 UV-I 0 W/m 5,1 km/h (1 Bft)
15.02.2013 04:08 -0,5 C -1,6 C 99 % 1014,3 hPa 0,0 l/m 0 min 0 min 0,0 UV-I 0 W/m 7,7 km/h (2 Bft)
15.02.2013 04:10 -0,5 C -1,6 C 99 % 1014,3 hPa 0,0 l/m 0 min 0 min 0,0 UV-I 0 W/m 5,1 km/h (1 Bft)
15.02.2013 04:12 -0,5 C -1,6 C 99 % 1014,3 hPa 0,0 l/m 0 min 0 min 0,0 UV-I 0 W/m 5,1 km/h (1 Bft)
15.02.2013 04:14 -0,4 C -1,6 C 99 % 1014,3 hPa 0,0 l/m 0 min 0 min 0,0 UV-I 0 W/m 7,7 km/h (2 Bft)
15.02.2013 04:16 -0,5 C -1,6 C 99 % 1014,3 hPa 0,0 l/m 0 min 0 min 0,0 UV-I 0 W/m 10,3 km/h (2 Bft)
15.02.2013 04:18 -0,5 C -1,6 C 99 % 1014,3 hPa 0,0 l/m 0 min 0 min 0,0 UV-I 0 W/m 7,7 km/h (2 Bft)
15.02.2013 04:20 -0,4 C -1,6 C 99 % 1014,3 hPa 0,0 l/m 0 min 0 min 0,0 UV-I 0 W/m 10,3 km/h (2 Bft)
15.02.2013 04:22 -0,5 C -1,6 C 99 % 1014,2 hPa 0,0 l/m 0 min 0 min 0,0 UV-I 0 W/m 7,7 km/h (2 Bft)
15.02.2013 04:24 -0,5 C -1,6 C 99 % 1014,2 hPa 0,0 l/m 0 min 0 min 0,0 UV-I 0 W/m 10,3 km/h (2 Bft)
15.02.2013 04:26 -0,5 C -1,6 C 99 % 1014,1 hPa 0,0 l/m 0 min 0 min 0,0 UV-I 0 W/m 10,3 km/h (2 Bft)
15.02.2013 04:28 -0,4 C -1,6 C 99 % 1014,1 hPa 0,0 l/m 0 min 0 min 0,0 UV-I 0 W/m 5,1 km/h (1 Bft)
15.02.2013 04:30 -0,4 C -1,6 C 99 % 1014,1 hPa 0,0 l/m 0 min 0 min 0,0 UV-I 0 W/m 7,7 km/h (2 Bft)
15.02.2013 04:32 -0,4 C -1,6 C 99 % 1014,1 hPa 0,0 l/m 0 min 0 min 0,0 UV-I 0 W/m 5,1 km/h (1 Bft)
15.02.2013 04:34 -0,4 C -1,6 C 99 % 1014,1 hPa 0,0 l/m 0 min 0 min 0,0 UV-I 0 W/m 7,7 km/h (2 Bft)
15.02.2013 04:36 -0,4 C -1,6 C 99 % 1014,1 hPa 0,0 l/m 0 min 0 min 0,0 UV-I 0 W/m 5,1 km/h (1 Bft)
15.02.2013 04:38 -0,4 C -1,6 C 99 % 1014,1 hPa 0,0 l/m 0 min 0 min 0,0 UV-I 0 W/m 5,1 km/h (1 Bft)
15.02.2013 04:40 -0,4 C -1,6 C 99 % 1014,1 hPa 0,0 l/m 0 min 0 min 0,0 UV-I 0 W/m 7,7 km/h (2 Bft)
15.02.2013 04:42 -0,4 C -1,6 C 99 % 1014,0 hPa 0,0 l/m 0 min 0 min 0,0 UV-I 0 W/m 10,3 km/h (2 Bft)
15.02.2013 04:44 -0,4 C -1,6 C 99 % 1014,0 hPa 0,0 l/m 0 min 0 min 0,0 UV-I 0 W/m 7,7 km/h (2 Bft)
15.02.2013 04:46 -0,4 C -1,6 C 99 % 1014,1 hPa 0,0 l/m 0 min 0 min 0,0 UV-I 0 W/m 10,3 km/h (2 Bft)
15.02.2013 04:48 -0,4 C -1,6 C 99 % 1014,0 hPa 0,0 l/m 0 min 0 min 0,0 UV-I 0 W/m 2,6 km/h (1 Bft)
15.02.2013 04:50 -0,4 C -1,6 C 99 % 1014,0 hPa 0,0 l/m 0 min 0 min 0,0 UV-I 0 W/m 7,7 km/h (2 Bft)
15.02.2013 04:52 -0,4 C -1,6 C 99 % 1014,1 hPa 0,0 l/m 0 min 0 min 0,0 UV-I 0 W/m 7,7 km/h (2 Bft)
15.02.2013 04:54 -0,4 C -1,6 C 99 % 1014,1 hPa 0,0 l/m 0 min 0 min 0,0 UV-I 0 W/m 10,3 km/h (2 Bft)
15.02.2013 04:56 -0,4 C -1,6 C 99 % 1014,1 hPa 0,0 l/m 0 min 0 min 0,0 UV-I 0 W/m 15,4 km/h (3 Bft)
15.02.2013 04:58 -0,4 C -1,6 C 99 % 1014,1 hPa 0,0 l/m 0 min 0 min 0,0 UV-I 0 W/m 7,7 km/h (2 Bft)
15.02.2013 05:00 -0,4 C -1,6 C 99 % 1014,1 hPa 0,0 l/m 0 min 0 min 0,0 UV-I 0 W/m 0,0 km/h (0 Bft)
15.02.2013 05:02 -0,4 C -1,6 C 99 % 1014,1 hPa 0,0 l/m 0 min 0 min 0,0 UV-I 0 W/m 5,1 km/h (1 Bft)
15.02.2013 05:04 -0,4 C -1,6 C 99 % 1014,1 hPa 0,0 l/m 0 min 0 min 0,0 UV-I 0 W/m 7,7 km/h (2 Bft)
15.02.2013 05:06 -0,4 C -1,6 C 99 % 1014,2 hPa 0,0 l/m 0 min 0 min 0,0 UV-I 0 W/m 7,7 km/h (2 Bft)
15.02.2013 05:08 -0,4 C -1,6 C 99 % 1014,1 hPa 0,0 l/m 0 min 0 min 0,0 UV-I 0 W/m 7,7 km/h (2 Bft)
15.02.2013 05:10 -0,4 C -1,6 C 99 % 1014,2 hPa 0,0 l/m 0 min 0 min 0,0 UV-I 0 W/m 12,9 km/h (3 Bft)
15.02.2013 05:12 -0,4 C -1,6 C 99 % 1014,2 hPa 0,0 l/m 0 min 0 min 0,0 UV-I 0 W/m 7,7 km/h (2 Bft)
15.02.2013 05:14 -0,4 C -1,6 C 99 % 1014,2 hPa 0,0 l/m 0 min 0 min 0,0 UV-I 0 W/m 7,7 km/h (2 Bft)
15.02.2013 05:16 -0,4 C -1,6 C 99 % 1014,3 hPa 0,0 l/m 0 min 0 min 0,0 UV-I 0 W/m 10,3 km/h (2 Bft)
15.02.2013 05:18 -0,4 C -1,6 C 99 % 1014,3 hPa 0,0 l/m 0 min 0 min 0,0 UV-I 0 W/m 7,7 km/h (2 Bft)
15.02.2013 05:20 -0,4 C -1,6 C 99 % 1014,3 hPa 0,0 l/m 0 min 0 min 0,0 UV-I 0 W/m 7,7 km/h (2 Bft)
15.02.2013 05:22 -0,4 C -1,6 C 99 % 1014,4 hPa 0,0 l/m 0 min 0 min 0,0 UV-I 0 W/m 7,7 km/h (2 Bft)
15.02.2013 05:24 -0,3 C -1,6 C 99 % 1014,4 hPa 0,0 l/m 0 min 0 min 0,0 UV-I 0 W/m 2,6 km/h (1 Bft)
15.02.2013 05:26 -0,4 C -1,6 C 99 % 1014,4 hPa 0,0 l/m 0 min 0 min 0,0 UV-I 0 W/m 2,6 km/h (1 Bft)
15.02.2013 05:28 -0,4 C -1,6 C 99 % 1014,5 hPa 0,0 l/m 0 min 0 min 0,0 UV-I 0 W/m 10,3 km/h (2 Bft)
15.02.2013 05:30 -0,3 C -1,6 C 99 % 1014,5 hPa 0,0 l/m 0 min 0 min 0,0 UV-I 0 W/m 7,7 km/h (2 Bft)
15.02.2013 05:32 -0,3 C -1,6 C 99 % 1014,6 hPa 0,0 l/m 0 min 0 min 0,0 UV-I 0 W/m 0,0 km/h (0 Bft)
15.02.2013 05:34 -0,3 C -1,6 C 99 % 1014,5 hPa 0,0 l/m 0 min 0 min 0,0 UV-I 0 W/m 10,3 km/h (2 Bft)
15.02.2013 05:36 -0,3 C -1,6 C 99 % 1014,6 hPa 0,0 l/m 0 min 0 min 0,0 UV-I 0 W/m 7,7 km/h (2 Bft)
15.02.2013 05:38 -0,3 C -1,6 C 99 % 1014,6 hPa 0,0 l/m 0 min 0 min 0,0 UV-I 0 W/m 5,1 km/h (1 Bft)
15.02.2013 05:40 -0,3 C -1,6 C 99 % 1014,6 hPa 0,0 l/m 0 min 0 min 0,0 UV-I 0 W/m 7,7 km/h (2 Bft)
15.02.2013 05:42 -0,3 C -1,6 C 99 % 1014,6 hPa 0,0 l/m 0 min 0 min 0,0 UV-I 0 W/m 5,1 km/h (1 Bft)
15.02.2013 05:44 -0,3 C -1,6 C 99 % 1014,5 hPa 0,0 l/m 0 min 0 min 0,0 UV-I 0 W/m 12,9 km/h (3 Bft)
15.02.2013 05:46 -0,3 C -1,6 C 99 % 1014,6 hPa 0,0 l/m 0 min 0 min 0,0 UV-I 0 W/m 7,7 km/h (2 Bft)
15.02.2013 05:48 -0,3 C -1,6 C 99 % 1014,5 hPa 0,0 l/m 0 min 0 min 0,0 UV-I 0 W/m 7,7 km/h (2 Bft)
15.02.2013 05:50 -0,3 C -1,6 C 99 % 1014,5 hPa 0,0 l/m 0 min 0 min 0,0 UV-I 0 W/m 10,3 km/h (2 Bft)
15.02.2013 05:52 -0,3 C -1,6 C 99 % 1014,5 hPa 0,0 l/m 0 min 0 min 0,0 UV-I 0 W/m 12,9 km/h (3 Bft)
15.02.2013 05:54 -0,3 C -1,6 C 99 % 1014,6 hPa 0,0 l/m 0 min 0 min 0,0 UV-I 0 W/m 10,3 km/h (2 Bft)
15.02.2013 05:56 -0,3 C -1,6 C 99 % 1014,6 hPa 0,0 l/m 0 min 0 min 0,0 UV-I 0 W/m 5,1 km/h (1 Bft)
15.02.2013 05:58 -0,3 C -1,0 C 99 % 1014,6 hPa 0,0 l/m 0 min 0 min 0,0 UV-I 0 W/m 7,7 km/h (2 Bft)
15.02.2013 06:00 -0,3 C -1,0 C 99 % 1014,6 hPa 0,0 l/m 0 min 0 min 0,0 UV-I 0 W/m 7,7 km/h (2 Bft)
15.02.2013 06:02 -0,3 C -1,0 C 99 % 1014,6 hPa 0,0 l/m 0 min 0 min 0,0 UV-I 0 W/m 7,7 km/h (2 Bft)
15.02.2013 06:04 -0,3 C -1,0 C 99 % 1014,6 hPa 0,0 l/m 0 min 0 min 0,0 UV-I 0 W/m 0,0 km/h (0 Bft)
15.02.2013 06:06 -0,3 C -1,0 C 99 % 1014,8 hPa 0,0 l/m 0 min 0 min 0,0 UV-I 0 W/m 0,0 km/h (0 Bft)
15.02.2013 06:08 -0,3 C -1,0 C 99 % 1014,8 hPa 0,0 l/m 0 min 0 min 0,0 UV-I 0 W/m 5,1 km/h (1 Bft)
15.02.2013 06:10 -0,3 C -1,0 C 99 % 1014,8 hPa 0,0 l/m 0 min 0 min 0,0 UV-I 0 W/m 0,0 km/h (0 Bft)
15.02.2013 06:12 -0,3 C -1,0 C 99 % 1014,8 hPa 0,0 l/m 0 min 0 min 0,0 UV-I 0 W/m 0,0 km/h (0 Bft)
15.02.2013 06:14 -0,2 C -1,0 C 99 % 1014,8 hPa 0,0 l/m 0 min 0 min 0,0 UV-I 0 W/m 0,0 km/h (0 Bft)
15.02.2013 06:16 -0,2 C -1,0 C 99 % 1014,7 hPa 0,0 l/m 0 min 0 min 0,0 UV-I 0 W/m 2,6 km/h (1 Bft)
15.02.2013 06:18 -0,2 C -1,0 C 99 % 1014,8 hPa 0,0 l/m 0 min 0 min 0,0 UV-I 0 W/m 0,0 km/h (0 Bft)
15.02.2013 06:20 -0,2 C -1,0 C 99 % 1014,8 hPa 0,0 l/m 0 min 0 min 0,0 UV-I 0 W/m 0,0 km/h (0 Bft)
15.02.2013 06:22 -0,2 C -1,0 C 99 % 1014,8 hPa 0,0 l/m 0 min 0 min 0,0 UV-I 0 W/m 7,7 km/h (2 Bft)
15.02.2013 06:24 -0,2 C -1,0 C 99 % 1014,8 hPa 0,0 l/m 0 min 0 min 0,0 UV-I 0 W/m 5,1 km/h (1 Bft)
15.02.2013 06:26 -0,2 C -1,0 C 99 % 1014,9 hPa 0,0 l/m 0 min 0 min 0,0 UV-I 0 W/m 5,1 km/h (1 Bft)
15.02.2013 06:28 -0,2 C -1,0 C 99 % 1014,9 hPa 0,0 l/m 0 min 0 min 0,0 UV-I 0 W/m 0,0 km/h (0 Bft)
15.02.2013 06:30 -0,2 C -1,0 C 99 % 1014,9 hPa 0,0 l/m 0 min 0 min 0,0 UV-I 0 W/m 5,1 km/h (1 Bft)
15.02.2013 06:32 -0,2 C -1,0 C 99 % 1014,9 hPa 0,0 l/m 0 min 0 min 0,0 UV-I 0 W/m 2,6 km/h (1 Bft)
15.02.2013 06:34 -0,2 C -1,0 C 99 % 1014,9 hPa 0,0 l/m 0 min 0 min 0,0 UV-I 0 W/m 2,6 km/h (1 Bft)
15.02.2013 06:36 -0,2 C -1,0 C 99 % 1014,9 hPa 0,0 l/m 0 min 0 min 0,0 UV-I 0 W/m 7,7 km/h (2 Bft)
15.02.2013 06:38 -0,2 C -1,0 C 99 % 1014,9 hPa 0,0 l/m 0 min 0 min 0,0 UV-I 0 W/m 0,0 km/h (0 Bft)
15.02.2013 06:40 -0,2 C -1,0 C 99 % 1015,0 hPa 0,0 l/m 0 min 0 min 0,0 UV-I 0 W/m 0,0 km/h (0 Bft)
15.02.2013 06:42 -0,2 C -1,0 C 99 % 1015,1 hPa 0,0 l/m 0 min 0 min 0,0 UV-I 0 W/m 0,0 km/h (0 Bft)
15.02.2013 06:44 -0,1 C -1,0 C 99 % 1015,1 hPa 0,0 l/m 0 min 0 min 0,0 UV-I 0 W/m 0,0 km/h (0 Bft)
15.02.2013 06:46 -0,1 C -1,0 C 99 % 1015,2 hPa 0,0 l/m 0 min 0 min 0,0 UV-I 0 W/m 0,0 km/h (0 Bft)
15.02.2013 06:48 -0,1 C -1,0 C 99 % 1015,1 hPa 0,0 l/m 0 min 0 min 0,0 UV-I 0 W/m 5,1 km/h (1 Bft)
15.02.2013 06:50 -0,1 C -1,0 C 99 % 1015,1 hPa 0,0 l/m 0 min 0 min 0,0 UV-I 0 W/m 2,6 km/h (1 Bft)
15.02.2013 06:52 -0,1 C -1,0 C 99 % 1015,1 hPa 0,0 l/m 0 min 0 min 0,0 UV-I 0 W/m 0,0 km/h (0 Bft)
15.02.2013 06:54 -0,1 C -1,0 C 99 % 1015,1 hPa 0,0 l/m 0 min 0 min 0,0 UV-I 0 W/m 0,0 km/h (0 Bft)
15.02.2013 06:56 -0,1 C -1,0 C 99 % 1015,2 hPa 0,0 l/m 0 min 0 min 0,0 UV-I 0 W/m 0,0 km/h (0 Bft)
15.02.2013 06:58 -0,1 C -1,0 C 99 % 1015,2 hPa 0,0 l/m 0 min 0 min 0,0 UV-I 0 W/m 2,6 km/h (1 Bft)
15.02.2013 07:00 -0,1 C -1,0 C 99 % 1015,1 hPa 0,0 l/m 0 min 0 min 0,0 UV-I 0 W/m 7,7 km/h (2 Bft)
15.02.2013 07:02 -0,1 C -1,0 C 99 % 1015,2 hPa 0,0 l/m 0 min 0 min 0,0 UV-I 0 W/m 7,7 km/h (2 Bft)
15.02.2013 07:04 -0,1 C -1,0 C 99 % 1015,2 hPa 0,0 l/m 0 min 0 min 0,0 UV-I 0 W/m 0,0 km/h (0 Bft)
15.02.2013 07:06 -0,1 C -1,0 C 99 % 1015,3 hPa 0,0 l/m 0 min 0 min 0,0 UV-I 0 W/m 7,7 km/h (2 Bft)
15.02.2013 07:08 -0,1 C -1,0 C 99 % 1015,2 hPa 0,0 l/m 0 min 0 min 0,0 UV-I 0 W/m 7,7 km/h (2 Bft)
15.02.2013 07:10 -0,1 C -1,0 C 99 % 1015,2 hPa 0,0 l/m 0 min 0 min 0,0 UV-I 0 W/m 7,7 km/h (2 Bft)
15.02.2013 07:12 -0,1 C -1,0 C 99 % 1015,2 hPa 0,0 l/m 0 min 0 min 0,0 UV-I 0 W/m 5,1 km/h (1 Bft)
15.02.2013 07:14 -0,1 C -1,0 C 99 % 1015,3 hPa 0,0 l/m 0 min 0 min 0,0 UV-I 0 W/m 7,7 km/h (2 Bft)
15.02.2013 07:16 -0,1 C -1,0 C 99 % 1015,3 hPa 0,0 l/m 0 min 0 min 0,0 UV-I 0 W/m 7,7 km/h (2 Bft)
15.02.2013 07:18 -0,1 C -1,0 C 99 % 1015,3 hPa 0,0 l/m 0 min 0 min 0,0 UV-I 0 W/m 2,6 km/h (1 Bft)
15.02.2013 07:20 -0,1 C -1,0 C 99 % 1015,3 hPa 0,0 l/m 0 min 0 min 0,0 UV-I 0 W/m 7,7 km/h (2 Bft)
15.02.2013 07:22 -0,1 C -1,0 C 99 % 1015,3 hPa 0,0 l/m 0 min 0 min 0,0 UV-I 0 W/m 5,1 km/h (1 Bft)
15.02.2013 07:24 -0,1 C -1,0 C 99 % 1015,4 hPa 0,0 l/m 0 min 0 min 0,0 UV-I 0 W/m 0,0 km/h (0 Bft)
15.02.2013 07:26 -0,1 C -1,0 C 99 % 1015,3 hPa 0,0 l/m 0 min 0 min 0,0 UV-I 0 W/m 7,7 km/h (2 Bft)
15.02.2013 07:28 -0,1 C -1,0 C 99 % 1015,4 hPa 0,0 l/m 0 min 0 min 0,0 UV-I 0 W/m 10,3 km/h (2 Bft)
15.02.2013 07:30 -0,1 C -1,0 C 99 % 1015,4 hPa 0,0 l/m 0 min 0 min 0,0 UV-I 0 W/m 7,7 km/h (2 Bft)
15.02.2013 07:32 -0,1 C -1,0 C 99 % 1015,3 hPa 0,0 l/m 0 min 0 min 0,0 UV-I 0 W/m 7,7 km/h (2 Bft)
15.02.2013 07:34 -0,1 C -1,0 C 99 % 1015,4 hPa 0,0 l/m 0 min 0 min 0,0 UV-I 0 W/m 2,6 km/h (1 Bft)
15.02.2013 07:36 -0,1 C -1,0 C 99 % 1015,5 hPa 0,0 l/m 0 min 0 min 0,0 UV-I 0 W/m 5,1 km/h (1 Bft)
15.02.2013 07:38 0,0 C -1,0 C 99 % 1015,4 hPa 0,0 l/m 0 min 0 min 0,0 UV-I 0 W/m 7,7 km/h (2 Bft)
15.02.2013 07:40 0,0 C -1,0 C 99 % 1015,4 hPa 0,0 l/m 0 min 0 min 0,0 UV-I 0 W/m 7,7 km/h (2 Bft)
15.02.2013 07:42 0,0 C -1,0 C 99 % 1015,5 hPa 0,2 l/m 0 min 0 min 0,0 UV-I 0 W/m 7,7 km/h (2 Bft)
15.02.2013 07:44 0,0 C -1,0 C 99 % 1015,5 hPa 0,0 l/m 0 min 0 min 0,0 UV-I 0 W/m 0,0 km/h (0 Bft)
15.02.2013 07:46 0,0 C -1,0 C 99 % 1015,6 hPa 0,0 l/m 0 min 0 min 0,0 UV-I 0 W/m 5,1 km/h (1 Bft)
15.02.2013 07:48 0,0 C -1,0 C 99 % 1015,7 hPa 0,0 l/m 0 min 0 min 0,0 UV-I 0 W/m 0,0 km/h (0 Bft)
15.02.2013 07:50 0,0 C -1,0 C 99 % 1015,8 hPa 0,0 l/m 0 min 0 min 0,0 UV-I 0 W/m 0,0 km/h (0 Bft)
15.02.2013 07:52 0,0 C -1,0 C 99 % 1015,8 hPa 0,0 l/m 0 min 0 min 0,0 UV-I 0 W/m 0,0 km/h (0 Bft)
15.02.2013 07:54 0,0 C -1,0 C 99 % 1015,8 hPa 0,0 l/m 0 min 0 min 0,0 UV-I 0 W/m 5,1 km/h (1 Bft)
15.02.2013 07:56 0,0 C -1,0 C 99 % 1015,8 hPa 0,0 l/m 0 min 0 min 0,0 UV-I 0 W/m 5,1 km/h (1 Bft)
15.02.2013 07:58 0,0 C -1,0 C 99 % 1015,7 hPa 0,0 l/m 0 min 0 min 0,0 UV-I 0 W/m 0,0 km/h (0 Bft)
15.02.2013 08:00 0,1 C -1,0 C 99 % 1015,8 hPa 0,0 l/m 0 min 0 min 0,0 UV-I 0 W/m 10,3 km/h (2 Bft)
15.02.2013 08:02 0,1 C -1,0 C 99 % 1015,7 hPa 0,0 l/m 0 min 0 min 0,0 UV-I 0 W/m 7,7 km/h (2 Bft)
15.02.2013 08:04 0,1 C -1,0 C 99 % 1015,7 hPa 0,2 l/m 0 min 0 min 0,0 UV-I 5 W/m 7,7 km/h (2 Bft)
15.02.2013 08:06 0,1 C -1,0 C 99 % 1015,7 hPa 0,2 l/m 0 min 0 min 0,0 UV-I 5 W/m 5,1 km/h (1 Bft)
15.02.2013 08:08 0,1 C -1,0 C 99 % 1015,7 hPa 0,2 l/m 0 min 0 min 0,0 UV-I 5 W/m 12,9 km/h (3 Bft)
15.02.2013 08:10 0,1 C -1,0 C 99 % 1015,7 hPa 0,0 l/m 0 min 0 min 0,0 UV-I 5 W/m 10,3 km/h (2 Bft)
15.02.2013 08:12 0,1 C -1,0 C 99 % 1015,6 hPa 0,0 l/m 0 min 0 min 0,0 UV-I 5 W/m 12,9 km/h (3 Bft)
15.02.2013 08:14 0,1 C -1,0 C 99 % 1015,7 hPa 0,0 l/m 0 min 0 min 0,0 UV-I 5 W/m 7,7 km/h (2 Bft)
15.02.2013 08:16 0,1 C -1,0 C 99 % 1015,8 hPa 0,2 l/m 0 min 0 min 0,0 UV-I 5 W/m 5,1 km/h (1 Bft)
15.02.2013 08:18 0,1 C -1,0 C 99 % 1015,8 hPa 0,0 l/m 0 min 0 min 0,0 UV-I 5 W/m 2,6 km/h (1 Bft)
15.02.2013 08:20 0,1 C -1,0 C 99 % 1015,7 hPa 0,0 l/m 0 min 0 min 0,0 UV-I 7 W/m 5,1 km/h (1 Bft)
15.02.2013 08:22 0,1 C -1,0 C 99 % 1015,8 hPa 0,0 l/m 0 min 0 min 0,0 UV-I 7 W/m 5,1 km/h (1 Bft)
15.02.2013 08:24 0,2 C -1,0 C 99 % 1015,8 hPa 0,0 l/m 0 min 0 min 0,0 UV-I 7 W/m 5,1 km/h (1 Bft)
15.02.2013 08:26 0,1 C -1,0 C 99 % 1015,9 hPa 0,0 l/m 0 min 0 min 0,0 UV-I 9 W/m 0,0 km/h (0 Bft)
15.02.2013 08:28 0,2 C -1,0 C 99 % 1015,9 hPa 0,0 l/m 0 min 0 min 0,0 UV-I 11 W/m 7,7 km/h (2 Bft)
15.02.2013 08:30 0,2 C -1,0 C 99 % 1015,9 hPa 0,0 l/m 0 min 0 min 0,0 UV-I 11 W/m 10,3 km/h (2 Bft)
15.02.2013 08:32 0,2 C -1,0 C 99 % 1015,9 hPa 0,0 l/m 0 min 0 min 0,0 UV-I 12 W/m 5,1 km/h (1 Bft)
15.02.2013 08:34 0,2 C -1,0 C 99 % 1015,9 hPa 0,0 l/m 0 min 0 min 0,0 UV-I 16 W/m 0,0 km/h (0 Bft)
15.02.2013 08:36 0,2 C -1,0 C 99 % 1015,9 hPa 0,0 l/m 0 min 0 min 0,0 UV-I 19 W/m 7,7 km/h (2 Bft)
15.02.2013 08:38 0,2 C -1,0 C 99 % 1015,9 hPa 0,0 l/m 0 min 0 min 0,0 UV-I 21 W/m 7,7 km/h (2 Bft)
15.02.2013 08:40 0,2 C -1,0 C 99 % 1015,9 hPa 0,0 l/m 0 min 0 min 0,0 UV-I 18 W/m 7,7 km/h (2 Bft)
15.02.2013 08:42 0,2 C -1,0 C 99 % 1016,0 hPa 0,0 l/m 0 min 0 min 0,0 UV-I 16 W/m 5,1 km/h (1 Bft)
15.02.2013 08:44 0,2 C -1,0 C 100 % 1016,1 hPa 0,0 l/m 0 min 0 min 0,0 UV-I 14 W/m 5,1 km/h (1 Bft)
15.02.2013 08:46 0,2 C -1,0 C 100 % 1016,1 hPa 0,0 l/m 0 min 0 min 0,0 UV-I 16 W/m 0,0 km/h (0 Bft)
15.02.2013 08:48 0,2 C -1,0 C 100 % 1016,1 hPa 0,0 l/m 0 min 0 min 0,0 UV-I 14 W/m 5,1 km/h (1 Bft)
15.02.2013 08:50 0,2 C -1,0 C 100 % 1016,1 hPa 0,0 l/m 0 min 0 min 0,0 UV-I 14 W/m 0,0 km/h (0 Bft)
15.02.2013 08:52 0,2 C -1,0 C 100 % 1016,2 hPa 0,0 l/m 0 min 0 min 0,0 UV-I 14 W/m 0,0 km/h (0 Bft)
15.02.2013 08:54 0,2 C -1,0 C 100 % 1016,2 hPa 0,0 l/m 0 min 0 min 0,0 UV-I 12 W/m 0,0 km/h (0 Bft)
15.02.2013 08:56 0,2 C -1,0 C 100 % 1016,4 hPa 0,0 l/m 0 min 0 min 0,0 UV-I 11 W/m 0,0 km/h (0 Bft)
15.02.2013 08:58 0,3 C -1,0 C 100 % 1016,3 hPa 0,0 l/m 0 min 0 min 0,0 UV-I 14 W/m 0,0 km/h (0 Bft)
15.02.2013 09:00 0,3 C -1,0 C 100 % 1016,3 hPa 0,0 l/m 0 min 0 min 0,0 UV-I 16 W/m 0,0 km/h (0 Bft)
15.02.2013 09:02 0,3 C -1,0 C 100 % 1016,3 hPa 0,0 l/m 0 min 0 min 0,0 UV-I 18 W/m 0,0 km/h (0 Bft)
15.02.2013 09:04 0,3 C -1,0 C 100 % 1016,3 hPa 0,0 l/m 0 min 0 min 0,0 UV-I 18 W/m 0,0 km/h (0 Bft)
15.02.2013 09:06 0,3 C -1,0 C 100 % 1016,3 hPa 0,0 l/m 0 min 0 min 0,0 UV-I 19 W/m 0,0 km/h (0 Bft)
15.02.2013 09:08 0,3 C -1,0 C 100 % 1016,4 hPa 0,0 l/m 0 min 0 min 0,0 UV-I 25 W/m 0,0 km/h (0 Bft)
15.02.2013 09:10 0,3 C -1,0 C 100 % 1016,4 hPa 0,0 l/m 0 min 0 min 0,0 UV-I 28 W/m 5,1 km/h (1 Bft)
15.02.2013 09:12 0,3 C -0,4 C 100 % 1016,4 hPa 0,0 l/m 0 min 0 min 0,0 UV-I 28 W/m 0,0 km/h (0 Bft)
15.02.2013 09:14 0,3 C -0,4 C 100 % 1016,4 hPa 0,0 l/m 0 min 0 min 0,0 UV-I 26 W/m 0,0 km/h (0 Bft)
15.02.2013 09:16 0,3 C -0,4 C 100 % 1016,4 hPa 0,0 l/m 0 min 0 min 0,0 UV-I 26 W/m 0,0 km/h (0 Bft)
15.02.2013 09:18 0,3 C -0,4 C 100 % 1016,4 hPa 0,0 l/m 0 min 0 min 0,0 UV-I 28 W/m 5,1 km/h (1 Bft)
15.02.2013 09:20 0,3 C -0,4 C 100 % 1016,4 hPa 0,0 l/m 0 min 0 min 0,0 UV-I 28 W/m 0,0 km/h (0 Bft)
15.02.2013 09:22 0,4 C -0,4 C 100 % 1016,4 hPa 0,0 l/m 0 min 0 min 0,0 UV-I 32 W/m 0,0 km/h (0 Bft)
15.02.2013 09:24 0,4 C -0,4 C 100 % 1016,5 hPa 0,0 l/m 0 min 0 min 0,0 UV-I 35 W/m 0,0 km/h (0 Bft)
15.02.2013 09:26 0,4 C -0,4 C 100 % 1016,5 hPa 0,0 l/m 0 min 0 min 0,0 UV-I 39 W/m 0,0 km/h (0 Bft)
15.02.2013 09:28 0,4 C -0,4 C 100 % 1016,5 hPa 0,0 l/m 0 min 0 min 0,0 UV-I 39 W/m 0,0 km/h (0 Bft)
15.02.2013 09:30 0,4 C -0,4 C 100 % 1016,5 hPa 0,0 l/m 0 min 0 min 0,0 UV-I 39 W/m 0,0 km/h (0 Bft)
15.02.2013 09:32 0,5 C -0,4 C 100 % 1016,6 hPa 0,0 l/m 0 min 0 min 0,0 UV-I 39 W/m 0,0 km/h (0 Bft)
15.02.2013 09:34 0,5 C -0,4 C 100 % 1016,6 hPa 0,0 l/m 0 min 0 min 0,0 UV-I 39 W/m 0,0 km/h (0 Bft)
15.02.2013 09:36 0,5 C -0,4 C 100 % 1016,5 hPa 0,0 l/m 0 min 0 min 0,0 UV-I 39 W/m 0,0 km/h (0 Bft)
15.02.2013 09:38 0,6 C -0,4 C 100 % 1016,6 hPa 0,0 l/m 0 min 0 min 0,0 UV-I 42 W/m 0,0 km/h (0 Bft)
15.02.2013 09:40 0,6 C -0,4 C 100 % 1016,5 hPa 0,0 l/m 0 min 0 min 0,0 UV-I 49 W/m 0,0 km/h (0 Bft)
15.02.2013 09:42 0,6 C -0,4 C 100 % 1016,6 hPa 0,0 l/m 0 min 0 min 0,0 UV-I 53 W/m 0,0 km/h (0 Bft)
15.02.2013 09:44 0,6 C 0,1 C 100 % 1016,5 hPa 0,0 l/m 0 min 0 min 0,0 UV-I 62 W/m 2,6 km/h (1 Bft)
15.02.2013 09:46 0,7 C 0,1 C 100 % 1016,5 hPa 0,0 l/m 0 min 0 min 0,0 UV-I 62 W/m 0,0 km/h (0 Bft)
15.02.2013 09:48 0,7 C 0,1 C 100 % 1016,5 hPa 0,0 l/m 0 min 0 min 0,0 UV-I 60 W/m 0,0 km/h (0 Bft)
15.02.2013 09:50 0,7 C 0,1 C 100 % 1016,6 hPa 0,0 l/m 0 min 0 min 0,0 UV-I 56 W/m 0,0 km/h (0 Bft)
15.02.2013 09:52 0,8 C 0,1 C 100 % 1016,6 hPa 0,0 l/m 0 min 0 min 0,0 UV-I 60 W/m 0,0 km/h (0 Bft)
15.02.2013 09:54 0,8 C 0,1 C 100 % 1016,6 hPa 0,0 l/m 0 min 0 min 0,0 UV-I 63 W/m 0,0 km/h (0 Bft)
15.02.2013 09:56 0,8 C 0,1 C 100 % 1016,6 hPa 0,0 l/m 0 min 0 min 0,0 UV-I 63 W/m 0,0 km/h (0 Bft)
15.02.2013 09:58 0,9 C 0,1 C 100 % 1016,6 hPa 0,0 l/m 0 min 0 min 0,0 UV-I 63 W/m 0,0 km/h (0 Bft)
15.02.2013 10:00 0,9 C 0,1 C 100 % 1016,6 hPa 0,0 l/m 0 min 0 min 0,0 UV-I 63 W/m 0,0 km/h (0 Bft)
15.02.2013 10:02 1,0 C 0,1 C 100 % 1016,6 hPa 0,0 l/m 0 min 0 min 0,0 UV-I 63 W/m 5,1 km/h (1 Bft)
15.02.2013 10:04 1,0 C 0,1 C 100 % 1016,6 hPa 0,0 l/m 0 min 0 min 0,0 UV-I 58 W/m 0,0 km/h (0 Bft)
15.02.2013 10:06 1,1 C 0,1 C 100 % 1016,6 hPa 0,0 l/m 0 min 0 min 0,0 UV-I 58 W/m 5,1 km/h (1 Bft)
15.02.2013 10:08 1,1 C 0,1 C 100 % 1016,7 hPa 0,0 l/m 0 min 0 min 0,0 UV-I 58 W/m 5,1 km/h (1 Bft)
15.02.2013 10:10 1,1 C 0,1 C 100 % 1016,7 hPa 0,0 l/m 0 min 0 min 0,0 UV-I 54 W/m 0,0 km/h (0 Bft)
15.02.2013 10:12 1,2 C 0,1 C 100 % 1016,6 hPa 0,0 l/m 0 min 0 min 0,0 UV-I 56 W/m 0,0 km/h (0 Bft)
15.02.2013 10:14 1,2 C 0,1 C 100 % 1016,6 hPa 0,0 l/m 0 min 0 min 0,0 UV-I 62 W/m 0,0 km/h (0 Bft)
15.02.2013 10:16 1,3 C 0,1 C 100 % 1016,7 hPa 0,0 l/m 0 min 0 min 0,0 UV-I 62 W/m 0,0 km/h (0 Bft)
15.02.2013 10:18 1,3 C 0,1 C 100 % 1016,7 hPa 0,0 l/m 0 min 0 min 0,0 UV-I 65 W/m 2,6 km/h (1 Bft)
15.02.2013 10:20 1,3 C 0,1 C 100 % 1016,7 hPa 0,0 l/m 0 min 0 min 0,0 UV-I 63 W/m 0,0 km/h (0 Bft)
15.02.2013 10:22 1,3 C 0,7 C 100 % 1016,7 hPa 0,0 l/m 0 min 0 min 0,0 UV-I 60 W/m 0,0 km/h (0 Bft)
15.02.2013 10:24 1,3 C 0,7 C 100 % 1016,8 hPa 0,0 l/m 0 min 0 min 0,0 UV-I 58 W/m 7,7 km/h (2 Bft)
15.02.2013 10:26 1,3 C 0,7 C 100 % 1016,7 hPa 0,0 l/m 0 min 0 min 0,0 UV-I 49 W/m 0,0 km/h (0 Bft)
15.02.2013 10:28 1,3 C 0,7 C 100 % 1016,7 hPa 0,0 l/m 0 min 0 min 0,0 UV-I 53 W/m 0,0 km/h (0 Bft)
15.02.2013 10:30 1,4 C 0,7 C 100 % 1016,8 hPa 0,0 l/m 0 min 0 min 0,0 UV-I 49 W/m 0,0 km/h (0 Bft)
15.02.2013 10:32 1,5 C 0,7 C 100 % 1016,8 hPa 0,0 l/m 0 min 0 min 0,0 UV-I 56 W/m 5,1 km/h (1 Bft)
15.02.2013 10:34 1,6 C 0,7 C 100 % 1016,8 hPa 0,0 l/m 0 min 0 min 0,0 UV-I 56 W/m 2,6 km/h (1 Bft)
15.02.2013 10:36 1,6 C 0,7 C 100 % 1016,8 hPa 0,0 l/m 0 min 0 min 0,0 UV-I 47 W/m 0,0 km/h (0 Bft)
15.02.2013 10:38 1,6 C 0,7 C 100 % 1016,8 hPa 0,0 l/m 0 min 0 min 0,0 UV-I 51 W/m 2,6 km/h (1 Bft)
15.02.2013 10:40 1,6 C 0,7 C 100 % 1016,8 hPa 0,0 l/m 0 min 0 min 0,0 UV-I 44 W/m 0,0 km/h (0 Bft)
15.02.2013 10:42 1,7 C 0,7 C 100 % 1016,9 hPa 0,0 l/m 0 min 0 min 0,0 UV-I 46 W/m 0,0 km/h (0 Bft)
15.02.2013 10:44 1,7 C 0,7 C 100 % 1016,9 hPa 0,0 l/m 0 min 0 min 0,0 UV-I 46 W/m 0,0 km/h (0 Bft)
15.02.2013 10:46 1,7 C 0,7 C 100 % 1017,0 hPa 0,0 l/m 0 min 0 min 0,0 UV-I 51 W/m 0,0 km/h (0 Bft)
15.02.2013 10:48 1,7 C 0,7 C 100 % 1016,9 hPa 0,0 l/m 0 min 0 min 0,0 UV-I 51 W/m 0,0 km/h (0 Bft)
15.02.2013 10:50 1,8 C 0,7 C 100 % 1017,0 hPa 0,0 l/m 0 min 0 min 0,0 UV-I 58 W/m 5,1 km/h (1 Bft)
15.02.2013 10:52 1,8 C 0,7 C 100 % 1017,1 hPa 0,0 l/m 0 min 0 min 0,0 UV-I 58 W/m 0,0 km/h (0 Bft)
15.02.2013 10:54 1,8 C 0,7 C 100 % 1017,1 hPa 0,0 l/m 0 min 0 min 0,0 UV-I 63 W/m 5,1 km/h (1 Bft)
15.02.2013 10:56 1,8 C 0,7 C 100 % 1017,1 hPa 0,0 l/m 0 min 0 min 0,0 UV-I 62 W/m 0,0 km/h (0 Bft)
15.02.2013 10:58 1,9 C 0,7 C 100 % 1017,1 hPa 0,0 l/m 0 min 0 min 0,0 UV-I 65 W/m 2,6 km/h (1 Bft)
15.02.2013 11:00 1,9 C 0,7 C 100 % 1017,0 hPa 0,0 l/m 0 min 0 min 0,0 UV-I 72 W/m 0,0 km/h (0 Bft)
15.02.2013 11:02 1,9 C 1,2 C 100 % 1017,0 hPa 0,0 l/m 0 min 0 min 0,0 UV-I 79 W/m 0,0 km/h (0 Bft)
15.02.2013 11:04 1,9 C 1,2 C 100 % 1017,1 hPa 0,0 l/m 0 min 0 min 0,0 UV-I 76 W/m 0,0 km/h (0 Bft)
15.02.2013 11:06 1,9 C 1,2 C 100 % 1017,2 hPa 0,0 l/m 0 min 0 min 0,0 UV-I 69 W/m 7,7 km/h (2 Bft)
15.02.2013 11:08 2,0 C 1,2 C 100 % 1017,2 hPa 0,0 l/m 0 min 0 min 0,0 UV-I 60 W/m 0,0 km/h (0 Bft)
15.02.2013 11:10 2,1 C 1,2 C 100 % 1017,4 hPa 0,0 l/m 0 min 0 min 0,0 UV-I 58 W/m 0,0 km/h (0 Bft)
15.02.2013 11:12 2,1 C 1,2 C 100 % 1017,3 hPa 0,0 l/m 0 min 0 min 0,0 UV-I 67 W/m 0,0 km/h (0 Bft)
15.02.2013 11:14 2,1 C 1,2 C 100 % 1017,2 hPa 0,0 l/m 0 min 0 min 0,0 UV-I 65 W/m 2,6 km/h (1 Bft)
15.02.2013 11:16 2,1 C 1,2 C 100 % 1017,3 hPa 0,0 l/m 0 min 0 min 0,0 UV-I 74 W/m 2,6 km/h (1 Bft)
15.02.2013 11:18 2,1 C 1,2 C 100 % 1017,3 hPa 0,0 l/m 0 min 0 min 0,0 UV-I 74 W/m 0,0 km/h (0 Bft)
15.02.2013 11:20 2,2 C 1,2 C 100 % 1017,4 hPa 0,0 l/m 0 min 0 min 0,0 UV-I 58 W/m 0,0 km/h (0 Bft)
15.02.2013 11:22 2,2 C 1,2 C 100 % 1017,6 hPa 0,0 l/m 0 min 0 min 0,0 UV-I 58 W/m 5,1 km/h (1 Bft)
15.02.2013 11:24 2,2 C 1,2 C 100 % 1017,6 hPa 0,0 l/m 0 min 0 min 0,0 UV-I 46 W/m 0,0 km/h (0 Bft)
15.02.2013 11:26 2,2 C 1,2 C 100 % 1017,6 hPa 0,0 l/m 0 min 0 min 0,0 UV-I 46 W/m 0,0 km/h (0 Bft)
15.02.2013 11:28 2,2 C 1,2 C 100 % 1017,6 hPa 0,0 l/m 0 min 0 min 0,0 UV-I 47 W/m 0,0 km/h (0 Bft)
15.02.2013 11:30 2,2 C 1,2 C 100 % 1017,6 hPa 0,0 l/m 0 min 0 min 0,0 UV-I 49 W/m 0,0 km/h (0 Bft)
15.02.2013 11:32 2,3 C 1,2 C 100 % 1017,6 hPa 0,0 l/m 0 min 0 min 0,0 UV-I 54 W/m 0,0 km/h (0 Bft)
15.02.2013 11:34 2,3 C 1,2 C 100 % 1017,6 hPa 0,0 l/m 0 min 0 min 0,0 UV-I 53 W/m 0,0 km/h (0 Bft)
15.02.2013 11:36 2,3 C 1,2 C 100 % 1017,6 hPa 0,0 l/m 0 min 0 min 0,0 UV-I 53 W/m 0,0 km/h (0 Bft)
15.02.2013 11:38 2,3 C 1,2 C 100 % 1017,6 hPa 0,0 l/m 0 min 0 min 0,0 UV-I 51 W/m 0,0 km/h (0 Bft)
15.02.2013 11:40 2,3 C 1,2 C 100 % 1017,7 hPa 0,0 l/m 0 min 0 min 0,0 UV-I 46 W/m 0,0 km/h (0 Bft)
15.02.2013 11:42 2,3 C 1,2 C 100 % 1017,7 hPa 0,0 l/m 0 min 0 min 0,0 UV-I 56 W/m 0,0 km/h (0 Bft)
15.02.2013 11:44 2,3 C 1,2 C 100 % 1017,7 hPa 0,0 l/m 0 min 0 min 0,0 UV-I 53 W/m 0,0 km/h (0 Bft)
15.02.2013 11:46 2,3 C 1,2 C 100 % 1017,7 hPa 0,0 l/m 0 min 0 min 0,0 UV-I 51 W/m 0,0 km/h (0 Bft)
15.02.2013 11:48 2,3 C 1,2 C 100 % 1017,7 hPa 0,0 l/m 0 min 0 min 0,0 UV-I 60 W/m 0,0 km/h (0 Bft)
15.02.2013 11:50 2,3 C 1,2 C 100 % 1017,7 hPa 0,0 l/m 0 min 0 min 0,0 UV-I 63 W/m 2,6 km/h (1 Bft)
15.02.2013 11:52 2,4 C 1,2 C 100 % 1017,6 hPa 0,0 l/m 0 min 0 min 0,0 UV-I 62 W/m 5,1 km/h (1 Bft)
15.02.2013 11:54 2,4 C 1,2 C 100 % 1017,7 hPa 0,0 l/m 0 min 0 min 0,0 UV-I 58 W/m 5,1 km/h (1 Bft)
15.02.2013 11:56 2,4 C 1,2 C 100 % 1017,7 hPa 0,0 l/m 0 min 0 min 0,0 UV-I 62 W/m 0,0 km/h (0 Bft)
15.02.2013 11:58 2,4 C 1,2 C 100 % 1017,7 hPa 0,0 l/m 0 min 0 min 0,0 UV-I 60 W/m 0,0 km/h (0 Bft)
15.02.2013 12:00 2,5 C 1,8 C 100 % 1017,7 hPa 0,0 l/m 0 min 0 min 0,0 UV-I 62 W/m 0,0 km/h (0 Bft)
15.02.2013 12:02 2,5 C 1,2 C 100 % 1017,8 hPa 0,0 l/m 0 min 0 min 0,0 UV-I 62 W/m 0,0 km/h (0 Bft)
15.02.2013 12:04 2,6 C 1,2 C 100 % 1017,7 hPa 0,0 l/m 0 min 0 min 0,0 UV-I 63 W/m 0,0 km/h (0 Bft)
15.02.2013 12:06 2,6 C 1,2 C 100 % 1017,8 hPa 0,0 l/m 0 min 0 min 0,0 UV-I 65 W/m 0,0 km/h (0 Bft)
15.02.2013 12:08 2,6 C 1,2 C 100 % 1017,7 hPa 0,0 l/m 0 min 0 min 0,0 UV-I 67 W/m 0,0 km/h (0 Bft)
15.02.2013 12:10 2,6 C 1,8 C 100 % 1017,7 hPa 0,0 l/m 0 min 0 min 0,0 UV-I 76 W/m 0,0 km/h (0 Bft)
15.02.2013 12:12 2,7 C 1,8 C 100 % 1017,7 hPa 0,0 l/m 0 min 0 min 0,0 UV-I 77 W/m 0,0 km/h (0 Bft)
15.02.2013 12:14 2,7 C 1,8 C 100 % 1017,8 hPa 0,0 l/m 0 min 0 min 0,0 UV-I 70 W/m 0,0 km/h (0 Bft)
15.02.2013 12:16 2,7 C 1,8 C 100 % 1017,8 hPa 0,0 l/m 0 min 0 min 0,0 UV-I 65 W/m 0,0 km/h (0 Bft)
15.02.2013 12:18 2,7 C 1,8 C 100 % 1017,9 hPa 0,0 l/m 0 min 0 min 0,0 UV-I 54 W/m 0,0 km/h (0 Bft)
15.02.2013 12:20 2,8 C 1,8 C 100 % 1017,9 hPa 0,0 l/m 0 min 0 min 0,0 UV-I 56 W/m 0,0 km/h (0 Bft)
15.02.2013 12:22 2,8 C 1,8 C 100 % 1017,8 hPa 0,0 l/m 0 min 0 min 0,0 UV-I 62 W/m 2,6 km/h (1 Bft)
15.02.2013 12:24 2,8 C 1,8 C 100 % 1017,8 hPa 0,0 l/m 0 min 0 min 0,0 UV-I 62 W/m 0,0 km/h (0 Bft)
15.02.2013 12:26 2,8 C 1,8 C 100 % 1017,8 hPa 0,0 l/m 0 min 0 min 0,0 UV-I 63 W/m 0,0 km/h (0 Bft)
15.02.2013 12:28 2,8 C 1,8 C 100 % 1017,8 hPa 0,0 l/m 0 min 0 min 0,0 UV-I 63 W/m 0,0 km/h (0 Bft)
15.02.2013 12:30 2,8 C 1,8 C 100 % 1017,8 hPa 0,0 l/m 0 min 0 min 0,0 UV-I 62 W/m 0,0 km/h (0 Bft)
15.02.2013 12:32 2,9 C 1,8 C 100 % 1017,8 hPa 0,0 l/m 0 min 0 min 0,0 UV-I 69 W/m 0,0 km/h (0 Bft)
15.02.2013 12:34 2,9 C 1,8 C 100 % 1017,8 hPa 0,0 l/m 0 min 0 min 0,0 UV-I 69 W/m 0,0 km/h (0 Bft)
15.02.2013 12:36 2,9 C 1,8 C 100 % 1017,8 hPa 0,0 l/m 0 min 0 min 0,0 UV-I 63 W/m 0,0 km/h (0 Bft)
15.02.2013 12:38 2,9 C 1,8 C 100 % 1017,8 hPa 0,0 l/m 0 min 0 min 0,0 UV-I 58 W/m 5,1 km/h (1 Bft)
15.02.2013 12:40 2,9 C 1,8 C 100 % 1017,9 hPa 0,0 l/m 0 min 0 min 0,0 UV-I 53 W/m 2,6 km/h (1 Bft)
15.02.2013 12:42 2,9 C 1,8 C 100 % 1017,9 hPa 0,0 l/m 0 min 0 min 0,0 UV-I 56 W/m 0,0 km/h (0 Bft)
15.02.2013 12:44 2,9 C 1,8 C 100 % 1017,9 hPa 0,0 l/m 0 min 0 min 0,0 UV-I 60 W/m 0,0 km/h (0 Bft)
15.02.2013 12:46 2,9 C 1,8 C 100 % 1017,9 hPa 0,0 l/m 0 min 0 min 0,0 UV-I 62 W/m 0,0 km/h (0 Bft)
15.02.2013 12:48 3,0 C 1,8 C 100 % 1017,8 hPa 0,0 l/m 0 min 0 min 0,0 UV-I 51 W/m 0,0 km/h (0 Bft)
15.02.2013 12:50 3,0 C 1,8 C 100 % 1017,9 hPa 0,0 l/m 0 min 0 min 0,0 UV-I 44 W/m 0,0 km/h (0 Bft)
15.02.2013 12:52 3,0 C 1,8 C 100 % 1017,9 hPa 0,0 l/m 0 min 0 min 0,0 UV-I 37 W/m 0,0 km/h (0 Bft)
15.02.2013 12:54 3,0 C 1,8 C 100 % 1018,0 hPa 0,0 l/m 0 min 0 min 0,0 UV-I 42 W/m 0,0 km/h (0 Bft)
15.02.2013 12:56 3,0 C 1,8 C 100 % 1017,9 hPa 0,0 l/m 0 min 0 min 0,0 UV-I 54 W/m 0,0 km/h (0 Bft)
15.02.2013 12:58 3,0 C 1,8 C 100 % 1017,9 hPa 0,0 l/m 0 min 0 min 0,0 UV-I 65 W/m 0,0 km/h (0 Bft)
15.02.2013 13:00 3,0 C 1,8 C 100 % 1018,0 hPa 0,0 l/m 0 min 0 min 0,0 UV-I 70 W/m 0,0 km/h (0 Bft)
15.02.2013 13:02 3,0 C 1,8 C 100 % 1017,9 hPa 0,0 l/m 0 min 0 min 0,0 UV-I 74 W/m 7,7 km/h (2 Bft)
15.02.2013 13:04 3,1 C 1,8 C 100 % 1017,9 hPa 0,0 l/m 0 min 0 min 0,0 UV-I 65 W/m 2,6 km/h (1 Bft)
15.02.2013 13:06 3,1 C 1,8 C 100 % 1017,9 hPa 0,0 l/m 0 min 0 min 0,0 UV-I 72 W/m 0,0 km/h (0 Bft)
15.02.2013 13:08 3,1 C 1,8 C 100 % 1017,9 hPa 0,0 l/m 0 min 0 min 0,0 UV-I 90 W/m 0,0 km/h (0 Bft)
15.02.2013 13:10 3,1 C 2,3 C 100 % 1017,9 hPa 0,0 l/m 0 min 0 min 0,0 UV-I 104 W/m 0,0 km/h (0 Bft)
15.02.2013 13:12 3,1 C 2,3 C 100 % 1017,9 hPa 0,0 l/m 0 min 0 min 0,0 UV-I 100 W/m 0,0 km/h (0 Bft)
15.02.2013 13:14 3,2 C 2,3 C 100 % 1017,9 hPa 0,0 l/m 0 min 0 min 0,0 UV-I 105 W/m 2,6 km/h (1 Bft)
15.02.2013 13:16 3,2 C 2,3 C 100 % 1017,9 hPa 0,0 l/m 0 min 0 min 0,0 UV-I 97 W/m 0,0 km/h (0 Bft)
15.02.2013 13:18 3,2 C 2,3 C 100 % 1017,9 hPa 0,0 l/m 0 min 0 min 0,0 UV-I 97 W/m 0,0 km/h (0 Bft)
15.02.2013 13:20 3,2 C 2,3 C 100 % 1017,9 hPa 0,0 l/m 0 min 0 min 0,0 UV-I 100 W/m 0,0 km/h (0 Bft)
15.02.2013 13:22 3,3 C 2,3 C 100 % 1017,9 hPa 0,0 l/m 0 min 0 min 0,0 UV-I 86 W/m 0,0 km/h (0 Bft)
15.02.2013 13:24 3,3 C 2,3 C 100 % 1018,0 hPa 0,0 l/m 0 min 0 min 0,0 UV-I 76 W/m 0,0 km/h (0 Bft)
15.02.2013 13:26 3,3 C 2,3 C 100 % 1018,0 hPa 0,0 l/m 0 min 0 min 0,0 UV-I 69 W/m 5,1 km/h (1 Bft)
15.02.2013 13:28 3,3 C 2,3 C 100 % 1018,0 hPa 0,0 l/m 0 min 0 min 0,0 UV-I 60 W/m 0,0 km/h (0 Bft)
15.02.2013 13:30 3,3 C 2,3 C 100 % 1018,1 hPa 0,0 l/m 0 min 0 min 0,0 UV-I 53 W/m 2,6 km/h (1 Bft)
15.02.2013 13:32 3,4 C 2,3 C 100 % 1018,2 hPa 0,0 l/m 0 min 0 min 0,0 UV-I 49 W/m 2,6 km/h (1 Bft)
15.02.2013 13:34 3,4 C 2,3 C 100 % 1018,2 hPa 0,0 l/m 0 min 0 min 0,0 UV-I 49 W/m 0,0 km/h (0 Bft)
15.02.2013 13:36 3,4 C 2,3 C 100 % 1018,2 hPa 0,0 l/m 0 min 0 min 0,0 UV-I 54 W/m 0,0 km/h (0 Bft)
15.02.2013 13:38 3,4 C 2,3 C 100 % 1018,0 hPa 0,0 l/m 0 min 0 min 0,0 UV-I 69 W/m 0,0 km/h (0 Bft)
15.02.2013 13:40 3,4 C 2,3 C 100 % 1018,0 hPa 0,0 l/m 0 min 0 min 0,0 UV-I 86 W/m 2,6 km/h (1 Bft)
15.02.2013 13:42 3,4 C 2,3 C 100 % 1018,1 hPa 0,0 l/m 0 min 0 min 0,0 UV-I 77 W/m 0,0 km/h (0 Bft)
15.02.2013 13:44 3,4 C 2,3 C 100 % 1018,1 hPa 0,0 l/m 0 min 0 min 0,0 UV-I 84 W/m 0,0 km/h (0 Bft)
15.02.2013 13:46 3,4 C 2,3 C 100 % 1018,1 hPa 0,0 l/m 0 min 0 min 0,0 UV-I 76 W/m 0,0 km/h (0 Bft)
15.02.2013 13:48 3,4 C 2,3 C 100 % 1018,2 hPa 0,0 l/m 0 min 0 min 0,0 UV-I 62 W/m 0,0 km/h (0 Bft)
15.02.2013 13:50 3,4 C 2,3 C 100 % 1018,2 hPa 0,0 l/m 0 min 0 min 0,0 UV-I 56 W/m 5,1 km/h (1 Bft)
15.02.2013 13:52 3,5 C 2,3 C 100 % 1018,3 hPa 0,0 l/m 0 min 0 min 0,0 UV-I 60 W/m 2,6 km/h (1 Bft)
15.02.2013 13:54 3,5 C 2,3 C 100 % 1018,3 hPa 0,0 l/m 0 min 0 min 0,0 UV-I 51 W/m 0,0 km/h (0 Bft)
15.02.2013 13:56 3,5 C 2,3 C 100 % 1018,3 hPa 0,0 l/m 0 min 0 min 0,0 UV-I 51 W/m 0,0 km/h (0 Bft)
15.02.2013 13:58 3,5 C 2,3 C 100 % 1018,3 hPa 0,0 l/m 0 min 0 min 0,0 UV-I 51 W/m 2,6 km/h (1 Bft)
15.02.2013 14:00 3,5 C 2,3 C 100 % 1018,3 hPa 0,0 l/m 0 min 0 min 0,0 UV-I 49 W/m 5,1 km/h (1 Bft)
15.02.2013 14:02 3,5 C 2,3 C 100 % 1018,3 hPa 0,0 l/m 0 min 0 min 0,0 UV-I 49 W/m 0,0 km/h (0 Bft)
15.02.2013 14:04 3,5 C 2,3 C 100 % 1018,3 hPa 0,0 l/m 0 min 0 min 0,0 UV-I 54 W/m 0,0 km/h (0 Bft)
15.02.2013 14:06 3,6 C 2,3 C 100 % 1018,3 hPa 0,0 l/m 0 min 0 min 0,0 UV-I 53 W/m 0,0 km/h (0 Bft)
15.02.2013 14:08 3,5 C 2,3 C 100 % 1018,3 hPa 0,0 l/m 0 min 0 min 0,0 UV-I 53 W/m 0,0 km/h (0 Bft)
15.02.2013 14:10 3,6 C 2,3 C 100 % 1018,4 hPa 0,0 l/m 0 min 0 min 0,0 UV-I 47 W/m 0,0 km/h (0 Bft)
15.02.2013 14:12 3,6 C 2,3 C 100 % 1018,4 hPa 0,0 l/m 0 min 0 min 0,0 UV-I 44 W/m 0,0 km/h (0 Bft)
15.02.2013 14:14 3,6 C 2,3 C 100 % 1018,4 hPa 0,0 l/m 0 min 0 min 0,0 UV-I 46 W/m 0,0 km/h (0 Bft)
15.02.2013 14:16 3,6 C 2,3 C 100 % 1018,3 hPa 0,0 l/m 0 min 0 min 0,0 UV-I 47 W/m 0,0 km/h (0 Bft)
15.02.2013 14:18 3,6 C 2,3 C 100 % 1018,3 hPa 0,0 l/m 0 min 0 min 0,0 UV-I 46 W/m 0,0 km/h (0 Bft)
15.02.2013 14:20 3,6 C 2,3 C 100 % 1018,4 hPa 0,0 l/m 0 min 0 min 0,0 UV-I 37 W/m 0,0 km/h (0 Bft)
15.02.2013 14:22 3,6 C 2,3 C 100 % 1018,3 hPa 0,0 l/m 0 min 0 min 0,0 UV-I 39 W/m 0,0 km/h (0 Bft)
15.02.2013 14:24 3,6 C 2,3 C 100 % 1018,4 hPa 0,0 l/m 0 min 0 min 0,0 UV-I 33 W/m 0,0 km/h (0 Bft)
15.02.2013 14:26 3,6 C 2,3 C 100 % 1018,4 hPa 0,0 l/m 0 min 0 min 0,0 UV-I 42 W/m 0,0 km/h (0 Bft)
15.02.2013 14:28 3,6 C 2,3 C 100 % 1018,3 hPa 0,0 l/m 0 min 0 min 0,0 UV-I 56 W/m 0,0 km/h (0 Bft)
15.02.2013 14:30 3,6 C 2,3 C 100 % 1018,3 hPa 0,0 l/m 0 min 0 min 0,0 UV-I 54 W/m 2,6 km/h (1 Bft)
15.02.2013 14:32 3,6 C 2,3 C 100 % 1018,4 hPa 0,0 l/m 0 min 0 min 0,0 UV-I 46 W/m 0,0 km/h (0 Bft)
15.02.2013 14:34 3,6 C 2,3 C 100 % 1018,4 hPa 0,0 l/m 0 min 0 min 0,0 UV-I 39 W/m 0,0 km/h (0 Bft)
15.02.2013 14:36 3,6 C 2,3 C 100 % 1018,4 hPa 0,0 l/m 0 min 0 min 0,0 UV-I 44 W/m 0,0 km/h (0 Bft)
15.02.2013 14:38 3,7 C 2,3 C 100 % 1018,4 hPa 0,0 l/m 0 min 0 min 0,0 UV-I 49 W/m 0,0 km/h (0 Bft)
15.02.2013 14:40 3,7 C 2,3 C 100 % 1018,4 hPa 0,0 l/m 0 min 0 min 0,0 UV-I 49 W/m 0,0 km/h (0 Bft)
15.02.2013 14:42 3,7 C 2,3 C 100 % 1018,4 hPa 0,0 l/m 0 min 0 min 0,0 UV-I 51 W/m 0,0 km/h (0 Bft)
15.02.2013 14:44 3,7 C 2,3 C 100 % 1018,4 hPa 0,0 l/m 0 min 0 min 0,0 UV-I 49 W/m 0,0 km/h (0 Bft)
15.02.2013 14:46 3,7 C 2,3 C 100 % 1018,4 hPa 0,0 l/m 0 min 0 min 0,0 UV-I 49 W/m 0,0 km/h (0 Bft)
15.02.2013 14:48 3,7 C 2,3 C 100 % 1018,5 hPa 0,0 l/m 0 min 0 min 0,0 UV-I 44 W/m 0,0 km/h (0 Bft)
15.02.2013 14:50 3,7 C 2,3 C 100 % 1018,4 hPa 0,0 l/m 0 min 0 min 0,0 UV-I 46 W/m 0,0 km/h (0 Bft)
15.02.2013 14:52 3,7 C 2,3 C 100 % 1018,5 hPa 0,0 l/m 0 min 0 min 0,0 UV-I 44 W/m 0,0 km/h (0 Bft)
15.02.2013 14:54 3,7 C 2,3 C 100 % 1018,5 hPa 0,0 l/m 0 min 0 min 0,0 UV-I 42 W/m 0,0 km/h (0 Bft)
15.02.2013 14:56 3,7 C 2,3 C 100 % 1018,5 hPa 0,0 l/m 0 min 0 min 0,0 UV-I 46 W/m 0,0 km/h (0 Bft)
15.02.2013 14:58 3,8 C 2,3 C 100 % 1018,5 hPa 0,0 l/m 0 min 0 min 0,0 UV-I 46 W/m 0,0 km/h (0 Bft)
15.02.2013 15:00 3,8 C 2,3 C 100 % 1018,5 hPa 0,0 l/m 0 min 0 min 0,0 UV-I 46 W/m 0,0 km/h (0 Bft)
15.02.2013 15:02 3,8 C 2,3 C 100 % 1018,6 hPa 0,0 l/m 0 min 0 min 0,0 UV-I 44 W/m 0,0 km/h (0 Bft)
15.02.2013 15:04 3,8 C 2,3 C 100 % 1018,5 hPa 0,0 l/m 0 min 0 min 0,0 UV-I 42 W/m 0,0 km/h (0 Bft)
15.02.2013 15:06 3,8 C 2,3 C 100 % 1018,6 hPa 0,0 l/m 0 min 0 min 0,0 UV-I 44 W/m 0,0 km/h (0 Bft)
15.02.2013 15:08 3,8 C 2,3 C 100 % 1018,6 hPa 0,0 l/m 0 min 0 min 0,0 UV-I 46 W/m 0,0 km/h (0 Bft)
15.02.2013 15:10 3,8 C 2,3 C 100 % 1018,6 hPa 0,0 l/m 0 min 0 min 0,0 UV-I 46 W/m 0,0 km/h (0 Bft)
15.02.2013 15:12 3,8 C 2,9 C 100 % 1018,6 hPa 0,0 l/m 0 min 0 min 0,0 UV-I 47 W/m 0,0 km/h (0 Bft)
15.02.2013 15:14 3,8 C 2,3 C 100 % 1018,6 hPa 0,0 l/m 0 min 0 min 0,0 UV-I 42 W/m 0,0 km/h (0 Bft)
15.02.2013 15:16 3,8 C 2,3 C 100 % 1018,6 hPa 0,0 l/m 0 min 0 min 0,0 UV-I 40 W/m 0,0 km/h (0 Bft)
15.02.2013 15:18 3,8 C 2,3 C 100 % 1018,6 hPa 0,0 l/m 0 min 0 min 0,0 UV-I 40 W/m 0,0 km/h (0 Bft)
15.02.2013 15:20 3,8 C 2,3 C 100 % 1018,6 hPa 0,0 l/m 0 min 0 min 0,0 UV-I 39 W/m 0,0 km/h (0 Bft)
15.02.2013 15:22 3,8 C 2,3 C 100 % 1018,7 hPa 0,0 l/m 0 min 0 min 0,0 UV-I 39 W/m 0,0 km/h (0 Bft)
15.02.2013 15:24 3,8 C 2,9 C 100 % 1018,7 hPa 0,0 l/m 0 min 0 min 0,0 UV-I 40 W/m 0,0 km/h (0 Bft)
15.02.2013 15:26 3,8 C 2,3 C 100 % 1018,7 hPa 0,0 l/m 0 min 0 min 0,0 UV-I 46 W/m 0,0 km/h (0 Bft)
15.02.2013 15:28 3,8 C 2,9 C 100 % 1018,6 hPa 0,0 l/m 0 min 0 min 0,0 UV-I 44 W/m 0,0 km/h (0 Bft)
15.02.2013 15:30 3,9 C 2,9 C 100 % 1018,6 hPa 0,0 l/m 0 min 0 min 0,0 UV-I 46 W/m 2,6 km/h (1 Bft)
15.02.2013 15:32 3,9 C 2,9 C 100 % 1018,7 hPa 0,0 l/m 0 min 0 min 0,0 UV-I 46 W/m 0,0 km/h (0 Bft)
15.02.2013 15:34 3,9 C 2,9 C 100 % 1018,6 hPa 0,0 l/m 0 min 0 min 0,0 UV-I 44 W/m 0,0 km/h (0 Bft)
15.02.2013 15:36 3,9 C 2,9 C 100 % 1018,7 hPa 0,0 l/m 0 min 0 min 0,0 UV-I 39 W/m 0,0 km/h (0 Bft)
15.02.2013 15:38 3,9 C 2,9 C 100 % 1018,8 hPa 0,0 l/m 0 min 0 min 0,0 UV-I 40 W/m 0,0 km/h (0 Bft)
15.02.2013 15:40 3,9 C 2,9 C 100 % 1018,7 hPa 0,0 l/m 0 min 0 min 0,0 UV-I 42 W/m 0,0 km/h (0 Bft)
15.02.2013 15:42 3,9 C 2,9 C 100 % 1018,7 hPa 0,0 l/m 0 min 0 min 0,0 UV-I 46 W/m 0,0 km/h (0 Bft)
15.02.2013 15:44 3,9 C 2,9 C 100 % 1018,7 hPa 0,0 l/m 0 min 0 min 0,0 UV-I 44 W/m 0,0 km/h (0 Bft)
15.02.2013 15:46 3,9 C 2,9 C 100 % 1018,7 hPa 0,0 l/m 0 min 0 min 0,0 UV-I 42 W/m 0,0 km/h (0 Bft)
15.02.2013 15:48 3,9 C 2,9 C 100 % 1018,7 hPa 0,0 l/m 0 min 0 min 0,0 UV-I 39 W/m 0,0 km/h (0 Bft)
15.02.2013 15:50 3,9 C 2,9 C 100 % 1018,7 hPa 0,0 l/m 0 min 0 min 0,0 UV-I 35 W/m 2,6 km/h (1 Bft)
15.02.2013 15:52 3,9 C 2,9 C 100 % 1018,8 hPa 0,0 l/m 0 min 0 min 0,0 UV-I 35 W/m 0,0 km/h (0 Bft)
15.02.2013 15:54 3,9 C 2,9 C 100 % 1018,8 hPa 0,0 l/m 0 min 0 min 0,0 UV-I 35 W/m 0,0 km/h (0 Bft)
15.02.2013 15:56 3,9 C 2,9 C 100 % 1018,8 hPa 0,0 l/m 0 min 0 min 0,0 UV-I 32 W/m 5,1 km/h (1 Bft)
15.02.2013 15:58 3,9 C 2,9 C 100 % 1018,8 hPa 0,0 l/m 0 min 0 min 0,0 UV-I 32 W/m 2,6 km/h (1 Bft)
15.02.2013 16:00 3,9 C 2,9 C 100 % 1018,8 hPa 0,0 l/m 0 min 0 min 0,0 UV-I 28 W/m 0,0 km/h (0 Bft)
15.02.2013 16:02 3,9 C 2,9 C 100 % 1018,8 hPa 0,0 l/m 0 min 0 min 0,0 UV-I 30 W/m 0,0 km/h (0 Bft)
15.02.2013 16:04 4,0 C 2,9 C 100 % 1018,8 hPa 0,0 l/m 0 min 0 min 0,0 UV-I 28 W/m 0,0 km/h (0 Bft)
15.02.2013 16:06 4,0 C 2,9 C 100 % 1018,8 hPa 0,0 l/m 0 min 0 min 0,0 UV-I 28 W/m 0,0 km/h (0 Bft)
15.02.2013 16:08 3,9 C 2,9 C 100 % 1018,8 hPa 0,0 l/m 0 min 0 min 0,0 UV-I 26 W/m 0,0 km/h (0 Bft)
15.02.2013 16:10 4,0 C 2,9 C 100 % 1018,8 hPa 0,0 l/m 0 min 0 min 0,0 UV-I 26 W/m 0,0 km/h (0 Bft)
15.02.2013 16:12 4,0 C 2,9 C 100 % 1018,8 hPa 0,0 l/m 0 min 0 min 0,0 UV-I 26 W/m 0,0 km/h (0 Bft)
15.02.2013 16:14 4,0 C 2,9 C 100 % 1018,9 hPa 0,0 l/m 0 min 0 min 0,0 UV-I 26 W/m 0,0 km/h (0 Bft)
15.02.2013 16:16 4,0 C 2,9 C 100 % 1018,8 hPa 0,0 l/m 0 min 0 min 0,0 UV-I 25 W/m 0,0 km/h (0 Bft)
15.02.2013 16:18 4,0 C 2,9 C 100 % 1018,8 hPa 0,0 l/m 0 min 0 min 0,0 UV-I 25 W/m 0,0 km/h (0 Bft)
15.02.2013 16:20 4,0 C 2,9 C 100 % 1018,8 hPa 0,0 l/m 0 min 0 min 0,0 UV-I 23 W/m 0,0 km/h (0 Bft)
15.02.2013 16:22 4,0 C 2,9 C 100 % 1018,8 hPa 0,0 l/m 0 min 0 min 0,0 UV-I 23 W/m 0,0 km/h (0 Bft)
15.02.2013 16:24 4,0 C 2,9 C 100 % 1018,8 hPa 0,0 l/m 0 min 0 min 0,0 UV-I 23 W/m 0,0 km/h (0 Bft)
15.02.2013 16:26 4,0 C 2,9 C 100 % 1018,8 hPa 0,0 l/m 0 min 0 min 0,0 UV-I 21 W/m 2,6 km/h (1 Bft)
15.02.2013 16:28 4,0 C 2,9 C 100 % 1019,0 hPa 0,0 l/m 0 min 0 min 0,0 UV-I 19 W/m 0,0 km/h (0 Bft)
15.02.2013 16:30 4,0 C 2,9 C 100 % 1018,9 hPa 0,0 l/m 0 min 0 min 0,0 UV-I 21 W/m 0,0 km/h (0 Bft)
15.02.2013 16:32 4,0 C 2,9 C 100 % 1018,9 hPa 0,0 l/m 0 min 0 min 0,0 UV-I 19 W/m 0,0 km/h (0 Bft)
15.02.2013 16:34 4,0 C 2,3 C 100 % 1018,9 hPa 0,0 l/m 0 min 0 min 0,0 UV-I 19 W/m 0,0 km/h (0 Bft)
15.02.2013 16:36 4,0 C 2,9 C 100 % 1018,9 hPa 0,0 l/m 0 min 0 min 0,0 UV-I 21 W/m 0,0 km/h (0 Bft)
15.02.2013 16:38 4,1 C 2,3 C 100 % 1018,9 hPa 0,0 l/m 0 min 0 min 0,0 UV-I 19 W/m 0,0 km/h (0 Bft)
15.02.2013 16:40 4,1 C 2,3 C 100 % 1018,9 hPa 0,0 l/m 0 min 0 min 0,0 UV-I 19 W/m 0,0 km/h (0 Bft)
15.02.2013 16:42 4,0 C 2,9 C 100 % 1018,9 hPa 0,0 l/m 0 min 0 min 0,0 UV-I 18 W/m 0,0 km/h (0 Bft)
15.02.2013 16:44 4,0 C 2,9 C 100 % 1019,0 hPa 0,0 l/m 0 min 0 min 0,0 UV-I 16 W/m 0,0 km/h (0 Bft)
15.02.2013 16:46 4,1 C 2,9 C 100 % 1019,0 hPa 0,0 l/m 0 min 0 min 0,0 UV-I 14 W/m 0,0 km/h (0 Bft)
15.02.2013 16:48 4,1 C 2,9 C 100 % 1019,0 hPa 0,0 l/m 0 min 0 min 0,0 UV-I 14 W/m 0,0 km/h (0 Bft)
15.02.2013 16:50 4,1 C 2,9 C 100 % 1019,0 hPa 0,0 l/m 0 min 0 min 0,0 UV-I 14 W/m 0,0 km/h (0 Bft)
15.02.2013 16:52 4,1 C 2,9 C 100 % 1019,0 hPa 0,0 l/m 0 min 0 min 0,0 UV-I 12 W/m 0,0 km/h (0 Bft)
15.02.2013 16:54 4,1 C 2,3 C 100 % 1018,9 hPa 0,0 l/m 0 min 0 min 0,0 UV-I 12 W/m 0,0 km/h (0 Bft)
15.02.2013 16:56 4,1 C 2,3 C 100 % 1019,0 hPa 0,0 l/m 0 min 0 min 0,0 UV-I 12 W/m 0,0 km/h (0 Bft)
15.02.2013 16:58 4,1 C 2,3 C 100 % 1019,1 hPa 0,0 l/m 0 min 0 min 0,0 UV-I 12 W/m 0,0 km/h (0 Bft)
15.02.2013 17:00 4,1 C 2,3 C 100 % 1019,0 hPa 0,0 l/m 0 min 0 min 0,0 UV-I 12 W/m 0,0 km/h (0 Bft)
15.02.2013 17:02 4,1 C 2,3 C 100 % 1019,1 hPa 0,0 l/m 0 min 0 min 0,0 UV-I 12 W/m 2,6 km/h (1 Bft)
15.02.2013 17:04 4,1 C 2,9 C 100 % 1019,1 hPa 0,0 l/m 0 min 0 min 0,0 UV-I 11 W/m 0,0 km/h (0 Bft)
15.02.2013 17:06 4,1 C 2,9 C 100 % 1019,1 hPa 0,0 l/m 0 min 0 min 0,0 UV-I 11 W/m 0,0 km/h (0 Bft)
15.02.2013 17:08 4,1 C 2,3 C 100 % 1019,2 hPa 0,0 l/m 0 min 0 min 0,0 UV-I 9 W/m 0,0 km/h (0 Bft)
15.02.2013 17:10 4,1 C 2,9 C 100 % 1019,2 hPa 0,0 l/m 0 min 0 min 0,0 UV-I 7 W/m 0,0 km/h (0 Bft)
15.02.2013 17:12 4,1 C 2,9 C 100 % 1019,3 hPa 0,0 l/m 0 min 0 min 0,0 UV-I 7 W/m 0,0 km/h (0 Bft)
15.02.2013 17:14 4,1 C 2,3 C 100 % 1019,3 hPa 0,0 l/m 0 min 0 min 0,0 UV-I 7 W/m 0,0 km/h (0 Bft)
15.02.2013 17:16 4,1 C 2,3 C 100 % 1019,4 hPa 0,0 l/m 0 min 0 min 0,0 UV-I 7 W/m 0,0 km/h (0 Bft)
15.02.2013 17:18 4,0 C 2,9 C 100 % 1019,4 hPa 0,0 l/m 0 min 0 min 0,0 UV-I 7 W/m 2,6 km/h (1 Bft)
15.02.2013 17:20 4,0 C 2,3 C 100 % 1019,3 hPa 0,0 l/m 0 min 0 min 0,0 UV-I 7 W/m 0,0 km/h (0 Bft)
15.02.2013 17:22 4,0 C 2,3 C 100 % 1019,3 hPa 0,0 l/m 0 min 0 min 0,0 UV-I 7 W/m 0,0 km/h (0 Bft)
15.02.2013 17:24 4,0 C 2,3 C 100 % 1019,4 hPa 0,0 l/m 0 min 0 min 0,0 UV-I 5 W/m 0,0 km/h (0 Bft)
15.02.2013 17:26 4,0 C 2,9 C 100 % 1019,4 hPa 0,0 l/m 0 min 0 min 0,0 UV-I 7 W/m 0,0 km/h (0 Bft)
15.02.2013 17:28 4,0 C 2,9 C 100 % 1019,4 hPa 0,0 l/m 0 min 0 min 0,0 UV-I 5 W/m 0,0 km/h (0 Bft)
15.02.2013 17:30 4,0 C 2,9 C 100 % 1019,4 hPa 0,0 l/m 0 min 0 min 0,0 UV-I 5 W/m 0,0 km/h (0 Bft)
15.02.2013 17:32 4,0 C 2,9 C 100 % 1019,5 hPa 0,0 l/m 0 min 0 min 0,0 UV-I 5 W/m 0,0 km/h (0 Bft)
15.02.2013 17:34 4,0 C 2,9 C 100 % 1019,5 hPa 0,0 l/m 0 min 0 min 0,0 UV-I 5 W/m 2,6 km/h (1 Bft)
15.02.2013 17:36 4,0 C 2,9 C 100 % 1019,5 hPa 0,0 l/m 0 min 0 min 0,0 UV-I 0 W/m 5,1 km/h (1 Bft)
15.02.2013 17:38 4,0 C 2,9 C 100 % 1019,6 hPa 0,0 l/m 0 min 0 min 0,0 UV-I 0 W/m 0,0 km/h (0 Bft)
15.02.2013 17:40 3,9 C 2,3 C 100 % 1019,5 hPa 0,0 l/m 0 min 0 min 0,0 UV-I 0 W/m 0,0 km/h (0 Bft)
15.02.2013 17:42 3,9 C 2,3 C 100 % 1019,6 hPa 0,0 l/m 0 min 0 min 0,0 UV-I 0 W/m 0,0 km/h (0 Bft)
15.02.2013 17:44 3,9 C 2,3 C 100 % 1019,7 hPa 0,0 l/m 0 min 0 min 0,0 UV-I 0 W/m 0,0 km/h (0 Bft)
15.02.2013 17:46 3,9 C 2,3 C 100 % 1019,7 hPa 0,0 l/m 0 min 0 min 0,0 UV-I 0 W/m 0,0 km/h (0 Bft)
15.02.2013 17:48 3,9 C 2,3 C 100 % 1019,7 hPa 0,0 l/m 0 min 0 min 0,0 UV-I 0 W/m 0,0 km/h (0 Bft)
15.02.2013 17:50 3,9 C 2,3 C 100 % 1019,7 hPa 0,0 l/m 0 min 0 min 0,0 UV-I 0 W/m 2,6 km/h (1 Bft)
15.02.2013 17:52 3,9 C 2,3 C 100 % 1019,7 hPa 0,0 l/m 0 min 0 min 0,0 UV-I 0 W/m 0,0 km/h (0 Bft)
15.02.2013 17:54 3,9 C 2,3 C 100 % 1019,7 hPa 0,0 l/m 0 min 0 min 0,0 UV-I 0 W/m 0,0 km/h (0 Bft)
15.02.2013 17:56 3,9 C 2,3 C 100 % 1019,8 hPa 0,0 l/m 0 min 0 min 0,0 UV-I 0 W/m 0,0 km/h (0 Bft)
15.02.2013 17:58 3,9 C 2,3 C 100 % 1019,8 hPa 0,0 l/m 0 min 0 min 0,0 UV-I 0 W/m 2,6 km/h (1 Bft)
15.02.2013 18:00 3,9 C 2,3 C 100 % 1019,8 hPa 0,0 l/m 0 min 0 min 0,0 UV-I 0 W/m 0,0 km/h (0 Bft)
15.02.2013 18:02 3,9 C 2,3 C 100 % 1019,8 hPa 0,0 l/m 0 min 0 min 0,0 UV-I 0 W/m 0,0 km/h (0 Bft)
15.02.2013 18:04 3,9 C 2,3 C 100 % 1019,8 hPa 0,0 l/m 0 min 0 min 0,0 UV-I 0 W/m 0,0 km/h (0 Bft)
15.02.2013 18:06 3,9 C 2,3 C 100 % 1019,9 hPa 0,0 l/m 0 min 0 min 0,0 UV-I 0 W/m 0,0 km/h (0 Bft)
15.02.2013 18:08 3,8 C 2,3 C 100 % 1019,8 hPa 0,0 l/m 0 min 0 min 0,0 UV-I 0 W/m 0,0 km/h (0 Bft)
15.02.2013 18:10 3,8 C 2,3 C 100 % 1019,9 hPa 0,0 l/m 0 min 0 min 0,0 UV-I 0 W/m 0,0 km/h (0 Bft)
15.02.2013 18:12 3,8 C 2,3 C 100 % 1019,9 hPa 0,0 l/m 0 min 0 min 0,0 UV-I 0 W/m 0,0 km/h (0 Bft)
15.02.2013 18:14 3,8 C 2,3 C 100 % 1019,9 hPa 0,0 l/m 0 min 0 min 0,0 UV-I 0 W/m 0,0 km/h (0 Bft)
15.02.2013 18:16 3,8 C 2,3 C 100 % 1020,0 hPa 0,0 l/m 0 min 0 min 0,0 UV-I 0 W/m 0,0 km/h (0 Bft)
15.02.2013 18:18 3,8 C 2,3 C 100 % 1020,0 hPa 0,0 l/m 0 min 0 min 0,0 UV-I 0 W/m 0,0 km/h (0 Bft)
15.02.2013 18:20 3,8 C 2,3 C 100 % 1020,0 hPa 0,0 l/m 0 min 0 min 0,0 UV-I 0 W/m 0,0 km/h (0 Bft)
15.02.2013 18:22 3,8 C 2,3 C 100 % 1020,0 hPa 0,0 l/m 0 min 0 min 0,0 UV-I 0 W/m 0,0 km/h (0 Bft)
15.02.2013 18:24 3,8 C 2,3 C 100 % 1020,0 hPa 0,0 l/m 0 min 0 min 0,0 UV-I 0 W/m 0,0 km/h (0 Bft)
15.02.2013 18:26 3,8 C 2,3 C 100 % 1020,1 hPa 0,0 l/m 0 min 0 min 0,0 UV-I 0 W/m 0,0 km/h (0 Bft)
15.02.2013 18:28 3,8 C 2,3 C 100 % 1020,0 hPa 0,0 l/m 0 min 0 min 0,0 UV-I 0 W/m 0,0 km/h (0 Bft)
15.02.2013 18:30 3,8 C 2,3 C 100 % 1020,1 hPa 0,0 l/m 0 min 0 min 0,0 UV-I 0 W/m 0,0 km/h (0 Bft)
15.02.2013 18:32 3,8 C 2,3 C 100 % 1020,1 hPa 0,0 l/m 0 min 0 min 0,0 UV-I 0 W/m 0,0 km/h (0 Bft)
15.02.2013 18:34 3,8 C 2,3 C 100 % 1020,1 hPa 0,0 l/m 0 min 0 min 0,0 UV-I 0 W/m 0,0 km/h (0 Bft)
15.02.2013 18:36 3,8 C 2,3 C 100 % 1020,1 hPa 0,0 l/m 0 min 0 min 0,0 UV-I 0 W/m 0,0 km/h (0 Bft)
15.02.2013 18:38 3,8 C 2,3 C 100 % 1020,3 hPa 0,0 l/m 0 min 0 min 0,0 UV-I 0 W/m 0,0 km/h (0 Bft)
15.02.2013 18:40 3,8 C 2,3 C 100 % 1020,3 hPa 0,0 l/m 0 min 0 min 0,0 UV-I 0 W/m 0,0 km/h (0 Bft)
15.02.2013 18:42 3,8 C 2,3 C 100 % 1020,3 hPa 0,0 l/m 0 min 0 min 0,0 UV-I 0 W/m 0,0 km/h (0 Bft)
15.02.2013 18:44 3,8 C 2,3 C 100 % 1020,3 hPa 0,0 l/m 0 min 0 min 0,0 UV-I 0 W/m 0,0 km/h (0 Bft)
15.02.2013 18:46 3,8 C 2,3 C 100 % 1020,3 hPa 0,0 l/m 0 min 0 min 0,0 UV-I 0 W/m 0,0 km/h (0 Bft)
15.02.2013 18:48 3,8 C 2,3 C 100 % 1020,4 hPa 0,0 l/m 0 min 0 min 0,0 UV-I 0 W/m 0,0 km/h (0 Bft)
15.02.2013 18:50 3,8 C 2,3 C 100 % 1020,4 hPa 0,0 l/m 0 min 0 min 0,0 UV-I 0 W/m 0,0 km/h (0 Bft)
15.02.2013 18:52 3,7 C 2,3 C 100 % 1020,4 hPa 0,0 l/m 0 min 0 min 0,0 UV-I 0 W/m 0,0 km/h (0 Bft)
15.02.2013 18:54 3,7 C 2,3 C 100 % 1020,4 hPa 0,0 l/m 0 min 0 min 0,0 UV-I 0 W/m 0,0 km/h (0 Bft)
15.02.2013 18:56 3,7 C 2,3 C 100 % 1020,4 hPa 0,0 l/m 0 min 0 min 0,0 UV-I 0 W/m 0,0 km/h (0 Bft)
15.02.2013 18:58 3,7 C 2,3 C 100 % 1020,4 hPa 0,0 l/m 0 min 0 min 0,0 UV-I 0 W/m 0,0 km/h (0 Bft)
15.02.2013 19:00 3,7 C 2,3 C 100 % 1020,4 hPa 0,0 l/m 0 min 0 min 0,0 UV-I 0 W/m 0,0 km/h (0 Bft)
15.02.2013 19:02 3,7 C 2,3 C 100 % 1020,4 hPa 0,0 l/m 0 min 0 min 0,0 UV-I 0 W/m 0,0 km/h (0 Bft)
15.02.2013 19:04 3,7 C 2,3 C 100 % 1020,5 hPa 0,0 l/m 0 min 0 min 0,0 UV-I 0 W/m 0,0 km/h (0 Bft)
15.02.2013 19:06 3,7 C 2,3 C 100 % 1020,5 hPa 0,0 l/m 0 min 0 min 0,0 UV-I 0 W/m 0,0 km/h (0 Bft)
15.02.2013 19:08 3,7 C 2,3 C 100 % 1020,5 hPa 0,0 l/m 0 min 0 min 0,0 UV-I 0 W/m 0,0 km/h (0 Bft)
15.02.2013 19:10 3,7 C 2,3 C 100 % 1020,5 hPa 0,0 l/m 0 min 0 min 0,0 UV-I 0 W/m 0,0 km/h (0 Bft)
15.02.2013 19:12 3,7 C 2,3 C 100 % 1020,5 hPa 0,0 l/m 0 min 0 min 0,0 UV-I 0 W/m 0,0 km/h (0 Bft)
15.02.2013 19:14 3,7 C 2,3 C 100 % 1020,5 hPa 0,0 l/m 0 min 0 min 0,0 UV-I 0 W/m 2,6 km/h (1 Bft)
15.02.2013 19:16 3,7 C 2,3 C 100 % 1020,5 hPa 0,0 l/m 0 min 0 min 0,0 UV-I 0 W/m 0,0 km/h (0 Bft)
15.02.2013 19:18 3,7 C 2,3 C 100 % 1020,5 hPa 0,0 l/m 0 min 0 min 0,0 UV-I 0 W/m 0,0 km/h (0 Bft)
15.02.2013 19:20 3,7 C 2,3 C 100 % 1020,6 hPa 0,0 l/m 0 min 0 min 0,0 UV-I 0 W/m 0,0 km/h (0 Bft)
15.02.2013 19:22 3,7 C 2,3 C 100 % 1020,6 hPa 0,0 l/m 0 min 0 min 0,0 UV-I 0 W/m 5,1 km/h (1 Bft)
15.02.2013 19:24 3,7 C 2,3 C 100 % 1020,5 hPa 0,0 l/m 0 min 0 min 0,0 UV-I 0 W/m 0,0 km/h (0 Bft)
15.02.2013 19:26 3,7 C 2,3 C 100 % 1020,5 hPa 0,0 l/m 0 min 0 min 0,0 UV-I 0 W/m 0,0 km/h (0 Bft)
15.02.2013 19:28 3,7 C 2,3 C 100 % 1020,5 hPa 0,0 l/m 0 min 0 min 0,0 UV-I 0 W/m 0,0 km/h (0 Bft)
15.02.2013 19:30 3,7 C 2,3 C 100 % 1020,6 hPa 0,0 l/m 0 min 0 min 0,0 UV-I 0 W/m 2,6 km/h (1 Bft)
15.02.2013 19:32 3,7 C 2,3 C 100 % 1020,5 hPa 0,0 l/m 0 min 0 min 0,0 UV-I 0 W/m 0,0 km/h (0 Bft)
15.02.2013 19:34 3,7 C 2,3 C 100 % 1020,6 hPa 0,0 l/m 0 min 0 min 0,0 UV-I 0 W/m 0,0 km/h (0 Bft)
15.02.2013 19:36 3,7 C 2,3 C 100 % 1020,5 hPa 0,0 l/m 0 min 0 min 0,0 UV-I 0 W/m 5,1 km/h (1 Bft)
15.02.2013 19:38 3,7 C 2,3 C 100 % 1020,5 hPa 0,0 l/m 0 min 0 min 0,0 UV-I 0 W/m 2,6 km/h (1 Bft)
15.02.2013 19:40 3,7 C 2,3 C 100 % 1020,6 hPa 0,0 l/m 0 min 0 min 0,0 UV-I 0 W/m 5,1 km/h (1 Bft)
15.02.2013 19:42 3,7 C 2,3 C 100 % 1020,6 hPa 0,0 l/m 0 min 0 min 0,0 UV-I 0 W/m 2,6 km/h (1 Bft)
15.02.2013 19:44 3,7 C 2,3 C 100 % 1020,6 hPa 0,0 l/m 0 min 0 min 0,0 UV-I 0 W/m 0,0 km/h (0 Bft)
15.02.2013 19:46 3,7 C 2,3 C 100 % 1020,6 hPa 0,0 l/m 0 min 0 min 0,0 UV-I 0 W/m 0,0 km/h (0 Bft)
15.02.2013 19:48 3,7 C 2,3 C 100 % 1020,6 hPa 0,0 l/m 0 min 0 min 0,0 UV-I 0 W/m 0,0 km/h (0 Bft)
15.02.2013 19:50 3,7 C 2,3 C 100 % 1020,6 hPa 0,0 l/m 0 min 0 min 0,0 UV-I 0 W/m 0,0 km/h (0 Bft)
15.02.2013 19:52 3,7 C 2,3 C 100 % 1020,6 hPa 0,0 l/m 0 min 0 min 0,0 UV-I 0 W/m 0,0 km/h (0 Bft)
15.02.2013 19:54 3,7 C 2,3 C 100 % 1020,6 hPa 0,0 l/m 0 min 0 min 0,0 UV-I 0 W/m 5,1 km/h (1 Bft)
15.02.2013 19:56 3,7 C 2,3 C 100 % 1020,6 hPa 0,0 l/m 0 min 0 min 0,0 UV-I 0 W/m 0,0 km/h (0 Bft)
15.02.2013 19:58 3,7 C 2,3 C 100 % 1020,7 hPa 0,0 l/m 0 min 0 min 0,0 UV-I 0 W/m 0,0 km/h (0 Bft)
15.02.2013 20:00 3,7 C 2,3 C 100 % 1020,7 hPa 0,0 l/m 0 min 0 min 0,0 UV-I 0 W/m 0,0 km/h (0 Bft)
15.02.2013 20:02 3,7 C 2,3 C 100 % 1020,7 hPa 0,0 l/m 0 min 0 min 0,0 UV-I 0 W/m 0,0 km/h (0 Bft)
15.02.2013 20:04 3,7 C 2,3 C 100 % 1020,8 hPa 0,0 l/m 0 min 0 min 0,0 UV-I 0 W/m 0,0 km/h (0 Bft)
15.02.2013 20:06 3,7 C 2,3 C 100 % 1020,8 hPa 0,0 l/m 0 min 0 min 0,0 UV-I 0 W/m 5,1 km/h (1 Bft)
15.02.2013 20:08 3,7 C 2,3 C 100 % 1020,8 hPa 0,0 l/m 0 min 0 min 0,0 UV-I 0 W/m 0,0 km/h (0 Bft)
15.02.2013 20:10 3,7 C 2,3 C 100 % 1020,7 hPa 0,0 l/m 0 min 0 min 0,0 UV-I 0 W/m 7,7 km/h (2 Bft)
15.02.2013 20:12 3,7 C 2,3 C 100 % 1020,7 hPa 0,0 l/m 0 min 0 min 0,0 UV-I 0 W/m 0,0 km/h (0 Bft)
15.02.2013 20:14 3,7 C 2,3 C 100 % 1020,8 hPa 0,0 l/m 0 min 0 min 0,0 UV-I 0 W/m 0,0 km/h (0 Bft)
15.02.2013 20:16 3,7 C 2,3 C 100 % 1020,9 hPa 0,0 l/m 0 min 0 min 0,0 UV-I 0 W/m 5,1 km/h (1 Bft)
15.02.2013 20:18 3,7 C 2,3 C 100 % 1020,9 hPa 0,0 l/m 0 min 0 min 0,0 UV-I 0 W/m 5,1 km/h (1 Bft)
15.02.2013 20:20 3,7 C 2,3 C 100 % 1020,8 hPa 0,0 l/m 0 min 0 min 0,0 UV-I 0 W/m 5,1 km/h (1 Bft)
15.02.2013 20:22 3,7 C 2,3 C 100 % 1020,9 hPa 0,0 l/m 0 min 0 min 0,0 UV-I 0 W/m 2,6 km/h (1 Bft)
15.02.2013 20:24 3,7 C 2,3 C 100 % 1020,9 hPa 0,0 l/m 0 min 0 min 0,0 UV-I 0 W/m 0,0 km/h (0 Bft)
15.02.2013 20:26 3,7 C 2,3 C 100 % 1020,8 hPa 0,0 l/m 0 min 0 min 0,0 UV-I 0 W/m 5,1 km/h (1 Bft)
15.02.2013 20:28 3,7 C 2,3 C 100 % 1020,9 hPa 0,0 l/m 0 min 0 min 0,0 UV-I 0 W/m 0,0 km/h (0 Bft)
15.02.2013 20:30 3,7 C 2,3 C 100 % 1020,9 hPa 0,0 l/m 0 min 0 min 0,0 UV-I 0 W/m 0,0 km/h (0 Bft)
15.02.2013 20:32 3,7 C 2,3 C 100 % 1020,9 hPa 0,0 l/m 0 min 0 min 0,0 UV-I 0 W/m 0,0 km/h (0 Bft)
15.02.2013 20:34 3,7 C 2,3 C 100 % 1020,9 hPa 0,0 l/m 0 min 0 min 0,0 UV-I 0 W/m 0,0 km/h (0 Bft)
15.02.2013 20:36 3,7 C 2,3 C 100 % 1020,9 hPa 0,0 l/m 0 min 0 min 0,0 UV-I 0 W/m 0,0 km/h (0 Bft)
15.02.2013 20:38 3,7 C 2,3 C 100 % 1020,9 hPa 0,0 l/m 0 min 0 min 0,0 UV-I 0 W/m 0,0 km/h (0 Bft)
15.02.2013 20:40 3,6 C 2,3 C 100 % 1020,9 hPa 0,0 l/m 0 min 0 min 0,0 UV-I 0 W/m 0,0 km/h (0 Bft)
15.02.2013 20:42 3,6 C 2,3 C 100 % 1020,9 hPa 0,0 l/m 0 min 0 min 0,0 UV-I 0 W/m 0,0 km/h (0 Bft)
15.02.2013 20:44 3,6 C 2,3 C 100 % 1020,9 hPa 0,0 l/m 0 min 0 min 0,0 UV-I 0 W/m 0,0 km/h (0 Bft)
15.02.2013 20:46 3,6 C 1,8 C 100 % 1021,0 hPa 0,0 l/m 0 min 0 min 0,0 UV-I 0 W/m 0,0 km/h (0 Bft)
15.02.2013 20:48 3,6 C 1,8 C 100 % 1021,0 hPa 0,0 l/m 0 min 0 min 0,0 UV-I 0 W/m 0,0 km/h (0 Bft)
15.02.2013 20:50 3,6 C 1,8 C 100 % 1021,0 hPa 0,0 l/m 0 min 0 min 0,0 UV-I 0 W/m 0,0 km/h (0 Bft)
15.02.2013 20:52 3,6 C 1,8 C 100 % 1021,0 hPa 0,0 l/m 0 min 0 min 0,0 UV-I 0 W/m 0,0 km/h (0 Bft)
15.02.2013 20:54 3,6 C 1,8 C 100 % 1021,0 hPa 0,0 l/m 0 min 0 min 0,0 UV-I 0 W/m 0,0 km/h (0 Bft)
15.02.2013 20:56 3,6 C 1,8 C 100 % 1021,1 hPa 0,0 l/m 0 min 0 min 0,0 UV-I 0 W/m 0,0 km/h (0 Bft)
15.02.2013 20:58 3,5 C 1,8 C 100 % 1021,1 hPa 0,0 l/m 0 min 0 min 0,0 UV-I 0 W/m 0,0 km/h (0 Bft)
15.02.2013 21:00 3,5 C 1,8 C 100 % 1021,1 hPa 0,0 l/m 0 min 0 min 0,0 UV-I 0 W/m 2,6 km/h (1 Bft)
15.02.2013 21:02 3,5 C 1,8 C 100 % 1021,1 hPa 0,0 l/m 0 min 0 min 0,0 UV-I 0 W/m 0,0 km/h (0 Bft)
15.02.2013 21:04 3,5 C 1,8 C 100 % 1021,1 hPa 0,0 l/m 0 min 0 min 0,0 UV-I 0 W/m 0,0 km/h (0 Bft)
15.02.2013 21:06 3,5 C 1,8 C 100 % 1021,2 hPa 0,0 l/m 0 min 0 min 0,0 UV-I 0 W/m 0,0 km/h (0 Bft)
15.02.2013 21:08 3,5 C 1,8 C 100 % 1021,1 hPa 0,0 l/m 0 min 0 min 0,0 UV-I 0 W/m 0,0 km/h (0 Bft)
15.02.2013 21:10 3,4 C 1,8 C 100 % 1021,1 hPa 0,0 l/m 0 min 0 min 0,0 UV-I 0 W/m 0,0 km/h (0 Bft)
15.02.2013 21:12 3,4 C 1,8 C 100 % 1021,1 hPa 0,0 l/m 0 min 0 min 0,0 UV-I 0 W/m 0,0 km/h (0 Bft)
15.02.2013 21:14 3,4 C 1,8 C 100 % 1021,2 hPa 0,0 l/m 0 min 0 min 0,0 UV-I 0 W/m 0,0 km/h (0 Bft)
15.02.2013 21:16 3,4 C 1,8 C 100 % 1021,1 hPa 0,0 l/m 0 min 0 min 0,0 UV-I 0 W/m 0,0 km/h (0 Bft)
15.02.2013 21:18 3,4 C 1,8 C 100 % 1021,1 hPa 0,0 l/m 0 min 0 min 0,0 UV-I 0 W/m 0,0 km/h (0 Bft)
15.02.2013 21:20 3,4 C 1,8 C 100 % 1021,1 hPa 0,0 l/m 0 min 0 min 0,0 UV-I 0 W/m 0,0 km/h (0 Bft)
15.02.2013 21:22 3,4 C 1,8 C 100 % 1021,1 hPa 0,0 l/m 0 min 0 min 0,0 UV-I 0 W/m 0,0 km/h (0 Bft)
15.02.2013 21:24 3,4 C 1,8 C 100 % 1021,2 hPa 0,0 l/m 0 min 0 min 0,0 UV-I 0 W/m 0,0 km/h (0 Bft)
15.02.2013 21:26 3,4 C 1,8 C 100 % 1021,1 hPa 0,0 l/m 0 min 0 min 0,0 UV-I 0 W/m 0,0 km/h (0 Bft)
15.02.2013 21:28 3,4 C 1,8 C 100 % 1021,2 hPa 0,0 l/m 0 min 0 min 0,0 UV-I 0 W/m 0,0 km/h (0 Bft)
15.02.2013 21:30 3,4 C 1,8 C 100 % 1021,2 hPa 0,0 l/m 0 min 0 min 0,0 UV-I 0 W/m 0,0 km/h (0 Bft)
15.02.2013 21:32 3,4 C 1,8 C 100 % 1021,2 hPa 0,0 l/m 0 min 0 min 0,0 UV-I 0 W/m 5,1 km/h (1 Bft)
15.02.2013 21:34 3,4 C 1,8 C 100 % 1021,1 hPa 0,0 l/m 0 min 0 min 0,0 UV-I 0 W/m 5,1 km/h (1 Bft)
15.02.2013 21:36 3,3 C 1,8 C 100 % 1021,1 hPa 0,0 l/m 0 min 0 min 0,0 UV-I 0 W/m 0,0 km/h (0 Bft)
15.02.2013 21:38 3,3 C 1,8 C 100 % 1021,2 hPa 0,0 l/m 0 min 0 min 0,0 UV-I 0 W/m 0,0 km/h (0 Bft)
15.02.2013 21:40 3,3 C 1,8 C 100 % 1021,2 hPa 0,0 l/m 0 min 0 min 0,0 UV-I 0 W/m 0,0 km/h (0 Bft)
15.02.2013 21:42 3,3 C 1,8 C 100 % 1021,2 hPa 0,0 l/m 0 min 0 min 0,0 UV-I 0 W/m 0,0 km/h (0 Bft)
15.02.2013 21:44 3,3 C 1,8 C 100 % 1021,2 hPa 0,0 l/m 0 min 0 min 0,0 UV-I 0 W/m 5,1 km/h (1 Bft)
15.02.2013 21:46 3,3 C 1,8 C 100 % 1021,2 hPa 0,0 l/m 0 min 0 min 0,0 UV-I 0 W/m 0,0 km/h (0 Bft)
15.02.2013 21:48 3,3 C 1,8 C 100 % 1021,2 hPa 0,0 l/m 0 min 0 min 0,0 UV-I 0 W/m 0,0 km/h (0 Bft)
15.02.2013 21:50 3,3 C 1,8 C 100 % 1021,2 hPa 0,0 l/m 0 min 0 min 0,0 UV-I 0 W/m 0,0 km/h (0 Bft)
15.02.2013 21:52 3,3 C 1,8 C 100 % 1021,2 hPa 0,0 l/m 0 min 0 min 0,0 UV-I 0 W/m 0,0 km/h (0 Bft)
15.02.2013 21:54 3,3 C 1,8 C 100 % 1021,2 hPa 0,0 l/m 0 min 0 min 0,0 UV-I 0 W/m 0,0 km/h (0 Bft)
15.02.2013 21:56 3,3 C 1,8 C 100 % 1021,3 hPa 0,0 l/m 0 min 0 min 0,0 UV-I 0 W/m 5,1 km/h (1 Bft)
15.02.2013 21:58 3,3 C 1,8 C 100 % 1021,2 hPa 0,0 l/m 0 min 0 min 0,0 UV-I 0 W/m 0,0 km/h (0 Bft)
15.02.2013 22:00 3,3 C 1,8 C 100 % 1021,2 hPa 0,0 l/m 0 min 0 min 0,0 UV-I 0 W/m 0,0 km/h (0 Bft)
15.02.2013 22:02 3,3 C 1,8 C 100 % 1021,2 hPa 0,0 l/m 0 min 0 min 0,0 UV-I 0 W/m 0,0 km/h (0 Bft)
15.02.2013 22:04 3,3 C 1,8 C 100 % 1021,2 hPa 0,0 l/m 0 min 0 min 0,0 UV-I 0 W/m 0,0 km/h (0 Bft)
15.02.2013 22:06 3,3 C 1,8 C 100 % 1021,2 hPa 0,0 l/m 0 min 0 min 0,0 UV-I 0 W/m 0,0 km/h (0 Bft)
15.02.2013 22:08 3,3 C 1,8 C 100 % 1021,3 hPa 0,0 l/m 0 min 0 min 0,0 UV-I 0 W/m 0,0 km/h (0 Bft)
15.02.2013 22:10 3,3 C 1,8 C 100 % 1021,3 hPa 0,0 l/m 0 min 0 min 0,0 UV-I 0 W/m 0,0 km/h (0 Bft)
15.02.2013 22:12 3,3 C 1,8 C 100 % 1021,2 hPa 0,0 l/m 0 min 0 min 0,0 UV-I 0 W/m 0,0 km/h (0 Bft)
15.02.2013 22:14 3,3 C 1,8 C 100 % 1021,3 hPa 0,0 l/m 0 min 0 min 0,0 UV-I 0 W/m 2,6 km/h (1 Bft)
15.02.2013 22:16 3,3 C 1,8 C 100 % 1021,3 hPa 0,0 l/m 0 min 0 min 0,0 UV-I 0 W/m 0,0 km/h (0 Bft)
15.02.2013 22:18 3,3 C 1,8 C 100 % 1021,3 hPa 0,0 l/m 0 min 0 min 0,0 UV-I 0 W/m 2,6 km/h (1 Bft)
15.02.2013 22:20 3,3 C 1,8 C 100 % 1021,3 hPa 0,0 l/m 0 min 0 min 0,0 UV-I 0 W/m 0,0 km/h (0 Bft)
15.02.2013 22:22 3,3 C 1,8 C 100 % 1021,3 hPa 0,0 l/m 0 min 0 min 0,0 UV-I 0 W/m 2,6 km/h (1 Bft)
15.02.2013 22:24 3,3 C 1,8 C 100 % 1021,3 hPa 0,0 l/m 0 min 0 min 0,0 UV-I 0 W/m 0,0 km/h (0 Bft)
15.02.2013 22:26 3,3 C 1,8 C 100 % 1021,4 hPa 0,0 l/m 0 min 0 min 0,0 UV-I 0 W/m 0,0 km/h (0 Bft)
15.02.2013 22:28 3,3 C 1,8 C 100 % 1021,4 hPa 0,0 l/m 0 min 0 min 0,0 UV-I 0 W/m 0,0 km/h (0 Bft)
15.02.2013 22:30 3,3 C 1,8 C 100 % 1021,4 hPa 0,0 l/m 0 min 0 min 0,0 UV-I 0 W/m 5,1 km/h (1 Bft)
15.02.2013 22:32 3,3 C 1,8 C 100 % 1021,4 hPa 0,0 l/m 0 min 0 min 0,0 UV-I 0 W/m 2,6 km/h (1 Bft)
15.02.2013 22:34 3,3 C 1,8 C 100 % 1021,4 hPa 0,0 l/m 0 min 0 min 0,0 UV-I 0 W/m 2,6 km/h (1 Bft)
15.02.2013 22:36 3,3 C 1,8 C 100 % 1021,4 hPa 0,0 l/m 0 min 0 min 0,0 UV-I 0 W/m 2,6 km/h (1 Bft)
15.02.2013 22:38 3,3 C 1,8 C 100 % 1021,4 hPa 0,0 l/m 0 min 0 min 0,0 UV-I 0 W/m 0,0 km/h (0 Bft)
15.02.2013 22:40 3,3 C 1,8 C 100 % 1021,4 hPa 0,0 l/m 0 min 0 min 0,0 UV-I 0 W/m 0,0 km/h (0 Bft)
15.02.2013 22:42 3,3 C 1,8 C 100 % 1021,4 hPa 0,0 l/m 0 min 0 min 0,0 UV-I 0 W/m 0,0 km/h (0 Bft)
15.02.2013 22:44 3,3 C 1,8 C 100 % 1021,3 hPa 0,0 l/m 0 min 0 min 0,0 UV-I 0 W/m 0,0 km/h (0 Bft)
15.02.2013 22:46 3,3 C 1,8 C 100 % 1021,3 hPa 0,0 l/m 0 min 0 min 0,0 UV-I 0 W/m 0,0 km/h (0 Bft)
15.02.2013 22:48 3,3 C 1,8 C 100 % 1021,3 hPa 0,0 l/m 0 min 0 min 0,0 UV-I 0 W/m 2,6 km/h (1 Bft)
15.02.2013 22:50 3,2 C 1,8 C 100 % 1021,3 hPa 0,0 l/m 0 min 0 min 0,0 UV-I 0 W/m 0,0 km/h (0 Bft)
15.02.2013 22:52 3,2 C 1,8 C 100 % 1021,3 hPa 0,0 l/m 0 min 0 min 0,0 UV-I 0 W/m 0,0 km/h (0 Bft)
15.02.2013 22:54 3,2 C 1,8 C 100 % 1021,3 hPa 0,0 l/m 0 min 0 min 0,0 UV-I 0 W/m 0,0 km/h (0 Bft)
15.02.2013 22:56 3,2 C 1,8 C 100 % 1021,3 hPa 0,0 l/m 0 min 0 min 0,0 UV-I 0 W/m 0,0 km/h (0 Bft)
15.02.2013 22:58 3,2 C 1,8 C 100 % 1021,3 hPa 0,0 l/m 0 min 0 min 0,0 UV-I 0 W/m 2,6 km/h (1 Bft)
15.02.2013 23:00 3,2 C 1,8 C 100 % 1021,4 hPa 0,0 l/m 0 min 0 min 0,0 UV-I 0 W/m 0,0 km/h (0 Bft)
15.02.2013 23:02 3,2 C 1,8 C 100 % 1021,4 hPa 0,0 l/m 0 min 0 min 0,0 UV-I 0 W/m 0,0 km/h (0 Bft)
15.02.2013 23:04 3,2 C 1,8 C 100 % 1021,4 hPa 0,0 l/m 0 min 0 min 0,0 UV-I 0 W/m 0,0 km/h (0 Bft)
15.02.2013 23:06 3,2 C 1,8 C 100 % 1021,5 hPa 0,0 l/m 0 min 0 min 0,0 UV-I 0 W/m 0,0 km/h (0 Bft)
15.02.2013 23:08 3,2 C 1,8 C 100 % 1021,5 hPa 0,0 l/m 0 min 0 min 0,0 UV-I 0 W/m 0,0 km/h (0 Bft)
15.02.2013 23:10 3,2 C 1,8 C 100 % 1021,5 hPa 0,0 l/m 0 min 0 min 0,0 UV-I 0 W/m 5,1 km/h (1 Bft)
15.02.2013 23:12 3,2 C 1,8 C 100 % 1021,5 hPa 0,0 l/m 0 min 0 min 0,0 UV-I 0 W/m 7,7 km/h (2 Bft)
15.02.2013 23:14 3,2 C 1,8 C 100 % 1021,5 hPa 0,0 l/m 0 min 0 min 0,0 UV-I 0 W/m 0,0 km/h (0 Bft)
15.02.2013 23:16 3,2 C 1,8 C 100 % 1021,4 hPa 0,0 l/m 0 min 0 min 0,0 UV-I 0 W/m 0,0 km/h (0 Bft)
15.02.2013 23:18 3,2 C 1,8 C 100 % 1021,4 hPa 0,0 l/m 0 min 0 min 0,0 UV-I 0 W/m 5,1 km/h (1 Bft)
15.02.2013 23:20 3,2 C 1,8 C 100 % 1021,5 hPa 0,0 l/m 0 min 0 min 0,0 UV-I 0 W/m 0,0 km/h (0 Bft)
15.02.2013 23:22 3,2 C 1,8 C 100 % 1021,5 hPa 0,0 l/m 0 min 0 min 0,0 UV-I 0 W/m 5,1 km/h (1 Bft)
15.02.2013 23:24 3,2 C 1,8 C 100 % 1021,4 hPa 0,0 l/m 0 min 0 min 0,0 UV-I 0 W/m 0,0 km/h (0 Bft)
15.02.2013 23:26 3,2 C 1,8 C 100 % 1021,5 hPa 0,0 l/m 0 min 0 min 0,0 UV-I 0 W/m 0,0 km/h (0 Bft)
15.02.2013 23:28 3,2 C 1,8 C 100 % 1021,5 hPa 0,0 l/m 0 min 0 min 0,0 UV-I 0 W/m 5,1 km/h (1 Bft)
15.02.2013 23:30 3,2 C 1,8 C 100 % 1021,5 hPa 0,0 l/m 0 min 0 min 0,0 UV-I 0 W/m 0,0 km/h (0 Bft)
15.02.2013 23:32 3,2 C 1,8 C 100 % 1021,5 hPa 0,0 l/m 0 min 0 min 0,0 UV-I 0 W/m 0,0 km/h (0 Bft)
15.02.2013 23:34 3,2 C 1,8 C 100 % 1021,5 hPa 0,0 l/m 0 min 0 min 0,0 UV-I 0 W/m 0,0 km/h (0 Bft)
15.02.2013 23:36 3,2 C 1,8 C 100 % 1021,5 hPa 0,0 l/m 0 min 0 min 0,0 UV-I 0 W/m 2,6 km/h (1 Bft)
15.02.2013 23:38 3,2 C 1,8 C 100 % 1021,5 hPa 0,0 l/m 0 min 0 min 0,0 UV-I 0 W/m 0,0 km/h (0 Bft)
15.02.2013 23:40 3,2 C 1,8 C 100 % 1021,6 hPa 0,0 l/m 0 min 0 min 0,0 UV-I 0 W/m 0,0 km/h (0 Bft)
15.02.2013 23:42 3,2 C 1,8 C 100 % 1021,6 hPa 0,0 l/m 0 min 0 min 0,0 UV-I 0 W/m 0,0 km/h (0 Bft)
15.02.2013 23:44 3,2 C 1,8 C 100 % 1021,6 hPa 0,0 l/m 0 min 0 min 0,0 UV-I 0 W/m 0,0 km/h (0 Bft)
15.02.2013 23:46 3,2 C 1,8 C 100 % 1021,6 hPa 0,0 l/m 0 min 0 min 0,0 UV-I 0 W/m 0,0 km/h (0 Bft)
15.02.2013 23:48 3,2 C 1,8 C 100 % 1021,7 hPa 0,0 l/m 0 min 0 min 0,0 UV-I 0 W/m 0,0 km/h (0 Bft)
15.02.2013 23:50 3,2 C 1,8 C 100 % 1021,6 hPa 0,0 l/m 0 min 0 min 0,0 UV-I 0 W/m 0,0 km/h (0 Bft)
15.02.2013 23:52 3,2 C 1,8 C 100 % 1021,6 hPa 0,0 l/m 0 min 0 min 0,0 UV-I 0 W/m 0,0 km/h (0 Bft)
15.02.2013 23:54 3,2 C 1,8 C 100 % 1021,6 hPa 0,0 l/m 0 min 0 min 0,0 UV-I 0 W/m 0,0 km/h (0 Bft)
15.02.2013 23:56 3,2 C 1,8 C 100 % 1021,6 hPa 0,0 l/m 0 min 0 min 0,0 UV-I 0 W/m 0,0 km/h (0 Bft)
15.02.2013 23:58 3,2 C 1,8 C 100 % 1021,6 hPa 0,0 l/m 0 min 0 min 0,0 UV-I 0 W/m 0,0 km/h (0 Bft)
_ Min-Zeit 00:00 00:00 00:00 00:00 - - - - - 00:50
Minimum _ -0,7 C -1,6 C 98 % 1013,7 hPa - - - - - 0,0 km/h (0 Bft)
_ Max-Zeit 16:28 15:12 08:44 23:48 07:42 00:00 00:00 00:00 13:14 00:42
Maximum _ 4,1 C 2,9 C 100 % 1021,7 hPa 0,2 l/m 0 min 0 min 0,0 UV-I 105 W/m 23,2 km/h
O-SO (4 Bft)
Durchschnitt _ 1,8 C 0,6 C 100 % 1017,4 hPa #1,0 l/m #0 min. #0 min. 0,0 UV-I 43 W/m 3,3 km/h (1 Bft)
© 2013 W. Hausmann